Osage River (Missouri), Tuscumbia (06926080)

StateMissouriLatestUnknown (36100 cfs)
RiverOsage RiverRatingObservedEstimated
Updated2026-05-05 11:00 (27 minutes ago)Flood - The river is flooding. Obstacles can be treacherous or deadly. The river should be avoided at this stage for casual trips and definitely for the inexperienced. Trips should be attempted only with protective gear and equipment.Flood(none)(none)
Discharge36100 cfs (median: 28900 cfs)High - The river is high and potentially dangerous, especially for the young and / or inexperienced. Normal stream obstacles are sometimes difficult to navigate. Extended distances can be attempted, but canoe travel may not be advisable.High(none)(none)
Height16.06 feetGood - Conditions are ideal for a canoe or kayak. Boats typically will drag on fewer than one-quarter of riffles, if at all, and portages are unnecessary or rare. Normal float lengths can be attempted without a problem.Good(none)(none)
TrendFalling (rising over 24 hours)Low - River is low but can still be floated. Some riffles are okay but most come with significant dragging and might need a portage. Float lengths should be reduced to accommodate low flow, dragging, and portages.Low(none)(none)
USGSExternal icon USGS Site (External icon Duck Duck Go Maps)Poor - River is too low to float comfortably. Most or all riffles will drag or must be portaged and some obstacles (such as slick shelf rock) cause undue problems. Avoid the river at this stage for casual paddling trips.Poor(none)(none)

Trending Data

Plot Image

Trips for Osage River (Missouri), Tuscumbia (06926080)

DateStartEndDistanceConditionDischargeHeightFishingDetails

A total of 0 rows are displayed.

Condition Descriptions

Fishing Conditions

Fish Species

Notes

Classic Trip List

The classic River Trips application is still available for use. It is updated with the new system using a data retrofit. It is no longer maintained. The original River Trips application is no longer updated (as of 1 Dec 2016) but can be checked for errors or for the condition of the data before it was converted to the new system.

Gauge Data Table

ObservationHeightDischargeMaximum
Discharge
Minimum
Discharge
Mean
Discharge
P05P10P20P25P50
(Median)
P75P80P90P95
2026-05-05 11:00 16.06 36100 50000 (2024) 1370 (2023) 26000 1400 2810 6020 28900 39900 45200 49700
2026-05-05 10:00 16.07 36200 50000 (2024) 1370 (2023) 26000 1400 2810 6020 28900 39900 45200 49700
2026-05-05 09:00 16.05 36100 50000 (2024) 1370 (2023) 26000 1400 2810 6020 28900 39900 45200 49700
2026-05-05 08:00 16.02 36000 50000 (2024) 1370 (2023) 26000 1400 2810 6020 28900 39900 45200 49700
2026-05-05 07:00 15.98 35900 50000 (2024) 1370 (2023) 26000 1400 2810 6020 28900 39900 45200 49700
2026-05-05 06:00 15.95 35800 50000 (2024) 1370 (2023) 26000 1400 2810 6020 28900 39900 45200 49700
2026-05-05 05:00 15.84 35400 50000 (2024) 1370 (2023) 26000 1400 2810 6020 28900 39900 45200 49700
2026-05-05 04:00 15.75 35200 50000 (2024) 1370 (2023) 26000 1400 2810 6020 28900 39900 45200 49700
2026-05-05 03:00 15.71 35000 50000 (2024) 1370 (2023) 26000 1400 2810 6020 28900 39900 45200 49700
2026-05-05 02:00 15.63 34800 50000 (2024) 1370 (2023) 26000 1400 2810 6020 28900 39900 45200 49700
2026-05-05 01:00 15.77 35200 50000 (2024) 1370 (2023) 26000 1400 2810 6020 28900 39900 45200 49700
2026-05-05 00:00 15.78 35300 50000 (2024) 1370 (2023) 26000 1400 2810 6020 28900 39900 45200 49700
2026-05-04 23:00 15.71 35000 50000 (2024) 1370 (2023) 26000 1400 2810 6020 28900 39900 45200 49700
2026-05-04 22:00 15.62 34800 55400 (2017) 1320 (2023) 26100 1330 3040 7580 26500 40900 46600 54700
2026-05-04 21:00 15.54 34500 55400 (2017) 1320 (2023) 26100 1330 3040 7580 26500 40900 46600 54700
2026-05-04 20:00 15.41 34100 55400 (2017) 1320 (2023) 26100 1330 3040 7580 26500 40900 46600 54700
2026-05-04 19:00 15.26 33600 55400 (2017) 1320 (2023) 26100 1330 3040 7580 26500 40900 46600 54700
2026-05-04 18:00 15.07 33000 55400 (2017) 1320 (2023) 26100 1330 3040 7580 26500 40900 46600 54700
2026-05-04 17:00 14.88 32500 55400 (2017) 1320 (2023) 26100 1330 3040 7580 26500 40900 46600 54700
2026-05-04 16:00 14.62 31700 55400 (2017) 1320 (2023) 26100 1330 3040 7580 26500 40900 46600 54700
2026-05-04 15:00 14.34 30800 55400 (2017) 1320 (2023) 26100 1330 3040 7580 26500 40900 46600 54700
2026-05-04 14:00 13.94 29600 55400 (2017) 1320 (2023) 26100 1330 3040 7580 26500 40900 46600 54700
2026-05-04 13:00 13.45 28200 55400 (2017) 1320 (2023) 26100 1330 3040 7580 26500 40900 46600 54700
2026-05-04 12:00 12.88 26500 55400 (2017) 1320 (2023) 26100 1330 3040 7580 26500 40900 46600 54700
2026-05-04 11:00 12.23 24600 55400 (2017) 1320 (2023) 26100 1330 3040 7580 26500 40900 46600 54700
2026-05-04 10:00 11.71 23200 55400 (2017) 1320 (2023) 26100 1330 3040 7580 26500 40900 46600 54700
2026-05-04 09:00 11.55 22700 55400 (2017) 1320 (2023) 26100 1330 3040 7580 26500 40900 46600 54700
2026-05-04 08:00 11.49 22600 55400 (2017) 1320 (2023) 26100 1330 3040 7580 26500 40900 46600 54700
2026-05-04 07:00 10.93 21000 55400 (2017) 1320 (2023) 26100 1330 3040 7580 26500 40900 46600 54700
2026-05-04 06:00 10.74 20500 55400 (2017) 1320 (2023) 26100 1330 3040 7580 26500 40900 46600 54700
2026-05-04 05:00 10.84 20800 55400 (2017) 1320 (2023) 26100 1330 3040 7580 26500 40900 46600 54700
2026-05-04 04:00 10.82 20700 55400 (2017) 1320 (2023) 26100 1330 3040 7580 26500 40900 46600 54700
2026-05-04 03:00 10.75 20600 55400 (2017) 1320 (2023) 26100 1330 3040 7580 26500 40900 46600 54700
2026-05-04 02:00 10.86 20800 55400 (2017) 1320 (2023) 26100 1330 3040 7580 26500 40900 46600 54700
2026-05-04 01:00 11.19 21700 55400 (2017) 1320 (2023) 26100 1330 3040 7580 26500 40900 46600 54700
2026-05-04 00:00 11.34 22200 55400 (2017) 1320 (2023) 26100 1330 3040 7580 26500 40900 46600 54700
2026-05-03 23:00 11.51 22600 55400 (2017) 1320 (2023) 26100 1330 3040 7580 26500 40900 46600 54700
2026-05-03 22:00 11.71 23200 56100 (2017) 1300 (2018) 26000 1310 3860 10600 27200 38100 41200 54700
2026-05-03 21:00 11.60 22900 56100 (2017) 1300 (2018) 26000 1310 3860 10600 27200 38100 41200 54700
2026-05-03 20:00 11.10 21500 56100 (2017) 1300 (2018) 26000 1310 3860 10600 27200 38100 41200 54700
2026-05-03 19:00 10.80 20700 56100 (2017) 1300 (2018) 26000 1310 3860 10600 27200 38100 41200 54700
2026-05-03 18:00 10.81 20700 56100 (2017) 1300 (2018) 26000 1310 3860 10600 27200 38100 41200 54700
2026-05-03 17:00 10.69 20400 56100 (2017) 1300 (2018) 26000 1310 3860 10600 27200 38100 41200 54700
2026-05-03 16:00 10.58 20100 56100 (2017) 1300 (2018) 26000 1310 3860 10600 27200 38100 41200 54700
2026-05-03 15:00 10.44 19700 56100 (2017) 1300 (2018) 26000 1310 3860 10600 27200 38100 41200 54700
2026-05-03 14:00 10.30 19400 56100 (2017) 1300 (2018) 26000 1310 3860 10600 27200 38100 41200 54700
2026-05-03 13:00 10.14 18900 56100 (2017) 1300 (2018) 26000 1310 3860 10600 27200 38100 41200 54700
2026-05-03 12:00 10.26 19300 56100 (2017) 1300 (2018) 26000 1310 3860 10600 27200 38100 41200 54700
2026-05-03 11:00 10.25 19200 56100 (2017) 1300 (2018) 26000 1310 3860 10600 27200 38100 41200 54700
2026-05-03 10:00 10.30 19400 56100 (2017) 1300 (2018) 26000 1310 3860 10600 27200 38100 41200 54700
2026-05-03 09:00 10.49 19900 56100 (2017) 1300 (2018) 26000 1310 3860 10600 27200 38100 41200 54700
2026-05-03 08:00 10.77 20600 56100 (2017) 1300 (2018) 26000 1310 3860 10600 27200 38100 41200 54700
2026-05-03 07:00 11.20 21800 56100 (2017) 1300 (2018) 26000 1310 3860 10600 27200 38100 41200 54700
2026-05-03 06:00 11.72 23200 56100 (2017) 1300 (2018) 26000 1310 3860 10600 27200 38100 41200 54700
2026-05-03 05:00 12.13 24300 56100 (2017) 1300 (2018) 26000 1310 3860 10600 27200 38100 41200 54700
2026-05-03 04:00 12.44 25200 56100 (2017) 1300 (2018) 26000 1310 3860 10600 27200 38100 41200 54700
2026-05-03 03:00 12.39 25100 56100 (2017) 1300 (2018) 26000 1310 3860 10600 27200 38100 41200 54700
2026-05-03 02:00 12.40 25100 56100 (2017) 1300 (2018) 26000 1310 3860 10600 27200 38100 41200 54700
2026-05-03 01:00 12.26 24700 56100 (2017) 1300 (2018) 26000 1310 3860 10600 27200 38100 41200 54700
2026-05-03 00:00 12.09 24200 56100 (2017) 1300 (2018) 26000 1310 3860 10600 27200 38100 41200 54700
2026-05-02 23:00 12.45 25300 56100 (2017) 1300 (2018) 26000 1310 3860 10600 27200 38100 41200 54700
2026-05-02 22:00 12.60 25700 59600 (2017) 1390 (2018) 25100 1450 3420 7370 25700 36000 36100 57300
2026-05-02 21:00 12.67 25900 59600 (2017) 1390 (2018) 25100 1450 3420 7370 25700 36000 36100 57300
2026-05-02 20:00 12.41 25100 59600 (2017) 1390 (2018) 25100 1450 3420 7370 25700 36000 36100 57300
2026-05-02 19:00 12.42 25200 59600 (2017) 1390 (2018) 25100 1450 3420 7370 25700 36000 36100 57300
2026-05-02 18:00 12.70 26000 59600 (2017) 1390 (2018) 25100 1450 3420 7370 25700 36000 36100 57300
2026-05-02 17:00 13.07 27000 59600 (2017) 1390 (2018) 25100 1450 3420 7370 25700 36000 36100 57300
2026-05-02 16:00 13.53 28400 59600 (2017) 1390 (2018) 25100 1450 3420 7370 25700 36000 36100 57300
2026-05-02 15:00 14.04 29900 59600 (2017) 1390 (2018) 25100 1450 3420 7370 25700 36000 36100 57300
2026-05-02 14:00 14.52 31400 59600 (2017) 1390 (2018) 25100 1450 3420 7370 25700 36000 36100 57300
2026-05-02 13:00 15.00 32800 59600 (2017) 1390 (2018) 25100 1450 3420 7370 25700 36000 36100 57300
2026-05-02 12:00 15.28 33700 59600 (2017) 1390 (2018) 25100 1450 3420 7370 25700 36000 36100 57300
2026-05-02 11:00 15.59 34700 59600 (2017) 1390 (2018) 25100 1450 3420 7370 25700 36000 36100 57300
2026-05-02 10:00 15.57 34600 59600 (2017) 1390 (2018) 25100 1450 3420 7370 25700 36000 36100 57300
2026-05-02 09:00 15.73 35100 59600 (2017) 1390 (2018) 25100 1450 3420 7370 25700 36000 36100 57300
2026-05-02 08:00 15.68 34900 59600 (2017) 1390 (2018) 25100 1450 3420 7370 25700 36000 36100 57300
2026-05-02 07:00 15.58 34600 59600 (2017) 1390 (2018) 25100 1450 3420 7370 25700 36000 36100 57300
2026-05-02 06:00 15.45 34200 59600 (2017) 1390 (2018) 25100 1450 3420 7370 25700 36000 36100 57300
2026-05-02 05:00 15.32 33800 59600 (2017) 1390 (2018) 25100 1450 3420 7370 25700 36000 36100 57300
2026-05-02 04:00 15.15 33300 59600 (2017) 1390 (2018) 25100 1450 3420 7370 25700 36000 36100 57300
2026-05-02 03:00 14.96 32700 59600 (2017) 1390 (2018) 25100 1450 3420 7370 25700 36000 36100 57300
2026-05-02 02:00 14.68 31800 59600 (2017) 1390 (2018) 25100 1450 3420 7370 25700 36000 36100 57300
2026-05-02 01:00 14.37 30900 59600 (2017) 1390 (2018) 25100 1450 3420 7370 25700 36000 36100 57300
2026-05-02 00:00 13.97 29700 59600 (2017) 1390 (2018) 25100 1450 3420 7370 25700 36000 36100 57300
2026-05-01 23:00 13.47 28200 59600 (2017) 1390 (2018) 25100 1450 3420 7370 25700 36000 36100 57300
2026-05-01 22:00 12.98 26800 74700 (2017) 3110 (2018) 25500 3340 5680 6440 21800 36200 46000 72200
2026-05-01 21:00 12.46 25300 74700 (2017) 3110 (2018) 25500 3340 5680 6440 21800 36200 46000 72200
2026-05-01 20:00 12.01 24000 74700 (2017) 3110 (2018) 25500 3340 5680 6440 21800 36200 46000 72200
2026-05-01 19:00 12.15 24400 74700 (2017) 3110 (2018) 25500 3340 5680 6440 21800 36200 46000 72200
2026-05-01 18:00 12.40 25100 74700 (2017) 3110 (2018) 25500 3340 5680 6440 21800 36200 46000 72200
2026-05-01 17:00 12.68 25900 74700 (2017) 3110 (2018) 25500 3340 5680 6440 21800 36200 46000 72200
2026-05-01 16:00 12.86 26400 74700 (2017) 3110 (2018) 25500 3340 5680 6440 21800 36200 46000 72200
2026-05-01 15:00 13.19 27400 74700 (2017) 3110 (2018) 25500 3340 5680 6440 21800 36200 46000 72200
2026-05-01 14:00 13.52 28400 74700 (2017) 3110 (2018) 25500 3340 5680 6440 21800 36200 46000 72200
2026-05-01 13:00 13.73 29000 74700 (2017) 3110 (2018) 25500 3340 5680 6440 21800 36200 46000 72200
2026-05-01 12:00 13.97 29700 74700 (2017) 3110 (2018) 25500 3340 5680 6440 21800 36200 46000 72200
2026-05-01 11:00 14.07 30000 74700 (2017) 3110 (2018) 25500 3340 5680 6440 21800 36200 46000 72200
2026-05-01 10:00 14.50 31300 74700 (2017) 3110 (2018) 25500 3340 5680 6440 21800 36200 46000 72200
2026-05-01 09:00 14.84 32300 74700 (2017) 3110 (2018) 25500 3340 5680 6440 21800 36200 46000 72200
2026-05-01 08:00 14.63 31700 74700 (2017) 3110 (2018) 25500 3340 5680 6440 21800 36200 46000 72200
2026-05-01 07:00 14.32 30700 74700 (2017) 3110 (2018) 25500 3340 5680 6440 21800 36200 46000 72200
2026-05-01 06:00 13.95 29600 74700 (2017) 3110 (2018) 25500 3340 5680 6440 21800 36200 46000 72200
2026-05-01 05:00 13.61 28600 74700 (2017) 3110 (2018) 25500 3340 5680 6440 21800 36200 46000 72200
2026-05-01 04:00 13.54 28400 74700 (2017) 3110 (2018) 25500 3340 5680 6440 21800 36200 46000 72200
2026-05-01 03:00 13.85 29300 74700 (2017) 3110 (2018) 25500 3340 5680 6440 21800 36200 46000 72200
2026-05-01 02:00 13.53 28400 74700 (2017) 3110 (2018) 25500 3340 5680 6440 21800 36200 46000 72200
2026-05-01 01:00 13.15 27300 74700 (2017) 3110 (2018) 25500 3340 5680 6440 21800 36200 46000 72200
2026-05-01 00:00 13.11 27200 74700 (2017) 3110 (2018) 25500 3340 5680 6440 21800 36200 46000 72200
2026-04-30 23:00 13.02 26900 74700 (2017) 3110 (2018) 25500 3340 5680 6440 21800 36200 46000 72200
2026-04-30 22:00 12.87 26500 65400 (2017) 3520 (2023) 23200 3540 4070 4960 24600 31600 31900 62100
2026-04-30 21:00 12.34 24900 65400 (2017) 3520 (2023) 23200 3540 4070 4960 24600 31600 31900 62100
2026-04-30 20:00 11.96 23900 65400 (2017) 3520 (2023) 23200 3540 4070 4960 24600 31600 31900 62100
2026-04-30 19:00 11.78 23400 65400 (2017) 3520 (2023) 23200 3540 4070 4960 24600 31600 31900 62100
2026-04-30 18:00 11.70 23100 65400 (2017) 3520 (2023) 23200 3540 4070 4960 24600 31600 31900 62100
2026-04-30 17:00 11.73 23200 65400 (2017) 3520 (2023) 23200 3540 4070 4960 24600 31600 31900 62100
2026-04-30 16:00 11.78 23400 65400 (2017) 3520 (2023) 23200 3540 4070 4960 24600 31600 31900 62100
2026-04-30 15:00 12.04 24100 65400 (2017) 3520 (2023) 23200 3540 4070 4960 24600 31600 31900 62100
2026-04-30 14:00 12.15 24400 65400 (2017) 3520 (2023) 23200 3540 4070 4960 24600 31600 31900 62100
2026-04-30 13:00 12.19 24500 65400 (2017) 3520 (2023) 23200 3540 4070 4960 24600 31600 31900 62100
2026-04-30 12:00 12.10 24300 65400 (2017) 3520 (2023) 23200 3540 4070 4960 24600 31600 31900 62100
2026-04-30 11:00 12.00 24000 65400 (2017) 3520 (2023) 23200 3540 4070 4960 24600 31600 31900 62100
2026-04-30 10:00 12.11 24300 65400 (2017) 3520 (2023) 23200 3540 4070 4960 24600 31600 31900 62100
2026-04-30 09:00 12.07 24200 65400 (2017) 3520 (2023) 23200 3540 4070 4960 24600 31600 31900 62100
2026-04-30 08:00 12.22 24600 65400 (2017) 3520 (2023) 23200 3540 4070 4960 24600 31600 31900 62100
2026-04-30 07:00 12.25 24700 65400 (2017) 3520 (2023) 23200 3540 4070 4960 24600 31600 31900 62100
2026-04-30 06:00 12.09 24200 65400 (2017) 3520 (2023) 23200 3540 4070 4960 24600 31600 31900 62100
2026-04-30 05:00 11.98 23900 65400 (2017) 3520 (2023) 23200 3540 4070 4960 24600 31600 31900 62100
2026-04-30 04:00 12.18 24500 65400 (2017) 3520 (2023) 23200 3540 4070 4960 24600 31600 31900 62100
2026-04-30 03:00 12.49 25400 65400 (2017) 3520 (2023) 23200 3540 4070 4960 24600 31600 31900 62100
2026-04-30 02:00 12.58 25600 65400 (2017) 3520 (2023) 23200 3540 4070 4960 24600 31600 31900 62100
2026-04-30 01:00 12.41 25100 65400 (2017) 3520 (2023) 23200 3540 4070 4960 24600 31600 31900 62100
2026-04-30 00:00 11.96 23900 65400 (2017) 3520 (2023) 23200 3540 4070 4960 24600 31600 31900 62100
2026-04-29 23:00 11.25 21900 65400 (2017) 3520 (2023) 23200 3540 4070 4960 24600 31600 31900 62100
2026-04-29 22:00 10.35 19500 43400 (2017) 3320 (2016) 22900 3350 3650 3720 24300 39200 40100 43100
2026-04-29 21:00 9.58 17200 43400 (2017) 3320 (2016) 22900 3350 3650 3720 24300 39200 40100 43100
2026-04-29 20:00 9.32 16500 43400 (2017) 3320 (2016) 22900 3350 3650 3720 24300 39200 40100 43100
2026-04-29 19:00 9.38 16600 43400 (2017) 3320 (2016) 22900 3350 3650 3720 24300 39200 40100 43100
2026-04-29 18:00 9.53 17100 43400 (2017) 3320 (2016) 22900 3350 3650 3720 24300 39200 40100 43100
2026-04-29 17:00 9.73 17700 43400 (2017) 3320 (2016) 22900 3350 3650 3720 24300 39200 40100 43100
2026-04-29 16:00 9.94 18300 43400 (2017) 3320 (2016) 22900 3350 3650 3720 24300 39200 40100 43100
2026-04-29 15:00 10.27 19300 43400 (2017) 3320 (2016) 22900 3350 3650 3720 24300 39200 40100 43100
2026-04-29 14:00 10.64 20300 43400 (2017) 3320 (2016) 22900 3350 3650 3720 24300 39200 40100 43100
2026-04-29 13:00 11.04 21300 43400 (2017) 3320 (2016) 22900 3350 3650 3720 24300 39200 40100 43100
2026-04-29 12:00 11.49 22600 43400 (2017) 3320 (2016) 22900 3350 3650 3720 24300 39200 40100 43100
2026-04-29 11:00 11.93 23800 43400 (2017) 3320 (2016) 22900 3350 3650 3720 24300 39200 40100 43100
2026-04-29 10:00 12.29 24800 43400 (2017) 3320 (2016) 22900 3350 3650 3720 24300 39200 40100 43100
2026-04-29 09:00 12.48 25300 43400 (2017) 3320 (2016) 22900 3350 3650 3720 24300 39200 40100 43100
2026-04-29 08:00 12.46 25300 43400 (2017) 3320 (2016) 22900 3350 3650 3720 24300 39200 40100 43100
2026-04-29 07:00 12.32 24900 43400 (2017) 3320 (2016) 22900 3350 3650 3720 24300 39200 40100 43100
2026-04-29 06:00 12.33 24900 43400 (2017) 3320 (2016) 22900 3350 3650 3720 24300 39200 40100 43100
2026-04-29 05:00 12.36 25000 43400 (2017) 3320 (2016) 22900 3350 3650 3720 24300 39200 40100 43100
2026-04-29 04:00 13.01 26900 43400 (2017) 3320 (2016) 22900 3350 3650 3720 24300 39200 40100 43100
2026-04-29 03:00 13.66 28800 43400 (2017) 3320 (2016) 22900 3350 3650 3720 24300 39200 40100 43100
2026-04-29 02:00 14.52 31400 43400 (2017) 3320 (2016) 22900 3350 3650 3720 24300 39200 40100 43100
2026-04-29 01:00 15.30 33800 43400 (2017) 3320 (2016) 22900 3350 3650 3720 24300 39200 40100 43100
2026-04-29 00:00 16.11 36300 43400 (2017) 3320 (2016) 22900 3350 3650 3720 24300 39200 40100 43100
2026-04-28 23:00 16.40 37200 43400 (2017) 3320 (2016) 22900 3350 3650 3720 24300 39200 40100 43100
2026-04-28 22:00 16.53 37600 37600 (2020) 3520 (2023) 19900 3540 4060 4900 22700 31200 32400 37100
2026-04-28 21:00 16.55 37700 37600 (2020) 3520 (2023) 19900 3540 4060 4900 22700 31200 32400 37100
2026-04-28 20:00 16.54 37700 37600 (2020) 3520 (2023) 19900 3540 4060 4900 22700 31200 32400 37100
2026-04-28 19:00 16.52 37600 37600 (2020) 3520 (2023) 19900 3540 4060 4900 22700 31200 32400 37100
2026-04-28 18:00 16.53 37600 37600 (2020) 3520 (2023) 19900 3540 4060 4900 22700 31200 32400 37100
2026-04-28 17:00 16.53 37600 37600 (2020) 3520 (2023) 19900 3540 4060 4900 22700 31200 32400 37100
2026-04-28 16:00 16.53 37600 37600 (2020) 3520 (2023) 19900 3540 4060 4900 22700 31200 32400 37100
2026-04-28 15:00 16.50 37600 37600 (2020) 3520 (2023) 19900 3540 4060 4900 22700 31200 32400 37100
2026-04-28 14:00 16.50 37600 37600 (2020) 3520 (2023) 19900 3540 4060 4900 22700 31200 32400 37100
2026-04-28 13:00 16.50 37600 37600 (2020) 3520 (2023) 19900 3540 4060 4900 22700 31200 32400 37100
2026-04-28 12:00 16.51 37600 37600 (2020) 3520 (2023) 19900 3540 4060 4900 22700 31200 32400 37100
2026-04-28 11:00 16.49 37500 37600 (2020) 3520 (2023) 19900 3540 4060 4900 22700 31200 32400 37100
2026-04-28 10:00 16.48 37500 37600 (2020) 3520 (2023) 19900 3540 4060 4900 22700 31200 32400 37100
2026-04-28 09:00 16.48 37500 37600 (2020) 3520 (2023) 19900 3540 4060 4900 22700 31200 32400 37100
2026-04-28 08:00 16.47 37500 37600 (2020) 3520 (2023) 19900 3540 4060 4900 22700 31200 32400 37100
2026-04-28 07:00 16.46 37400 37600 (2020) 3520 (2023) 19900 3540 4060 4900 22700 31200 32400 37100
2026-04-28 06:00 16.45 37400 37600 (2020) 3520 (2023) 19900 3540 4060 4900 22700 31200 32400 37100
2026-04-28 05:00 16.48 37500 37600 (2020) 3520 (2023) 19900 3540 4060 4900 22700 31200 32400 37100
2026-04-28 04:00 16.46 37400 37600 (2020) 3520 (2023) 19900 3540 4060 4900 22700 31200 32400 37100
2026-04-28 03:00 16.61 37900 37600 (2020) 3520 (2023) 19900 3540 4060 4900 22700 31200 32400 37100
2026-04-28 02:00 16.59 37800 37600 (2020) 3520 (2023) 19900 3540 4060 4900 22700 31200 32400 37100
2026-04-28 01:00 16.58 37800 37600 (2020) 3520 (2023) 19900 3540 4060 4900 22700 31200 32400 37100
2026-04-28 00:00 16.57 37800 37600 (2020) 3520 (2023) 19900 3540 4060 4900 22700 31200 32400 37100
2026-04-27 23:00 16.57 37800 37600 (2020) 3520 (2023) 19900 3540 4060 4900 22700 31200 32400 37100
2026-04-27 22:00 16.56 37700 36900 (2020) 1880 (2024) 17500 2020 3270 3400 16900 31100 32000 36400
2026-04-27 21:00 16.57 37800 36900 (2020) 1880 (2024) 17500 2020 3270 3400 16900 31100 32000 36400
2026-04-27 20:00 16.57 37800 36900 (2020) 1880 (2024) 17500 2020 3270 3400 16900 31100 32000 36400
2026-04-27 19:00 16.56 37700 36900 (2020) 1880 (2024) 17500 2020 3270 3400 16900 31100 32000 36400
2026-04-27 18:00 16.55 37700 36900 (2020) 1880 (2024) 17500 2020 3270 3400 16900 31100 32000 36400
2026-04-27 17:00 16.55 37700 36900 (2020) 1880 (2024) 17500 2020 3270 3400 16900 31100 32000 36400
2026-04-27 16:00 16.54 37700 36900 (2020) 1880 (2024) 17500 2020 3270 3400 16900 31100 32000 36400
2026-04-27 15:00 16.53 37600 36900 (2020) 1880 (2024) 17500 2020 3270 3400 16900 31100 32000 36400
2026-04-27 14:00 16.53 37600 36900 (2020) 1880 (2024) 17500 2020 3270 3400 16900 31100 32000 36400
2026-04-27 13:00 16.53 37600 36900 (2020) 1880 (2024) 17500 2020 3270 3400 16900 31100 32000 36400
2026-04-27 12:00 16.51 37600 36900 (2020) 1880 (2024) 17500 2020 3270 3400 16900 31100 32000 36400
2026-04-27 11:00 16.48 37500 36900 (2020) 1880 (2024) 17500 2020 3270 3400 16900 31100 32000 36400
2026-04-27 10:00 16.46 37400 36900 (2020) 1880 (2024) 17500 2020 3270 3400 16900 31100 32000 36400
2026-04-27 09:00 16.42 37300 36900 (2020) 1880 (2024) 17500 2020 3270 3400 16900 31100 32000 36400
2026-04-27 08:00 16.42 37300 36900 (2020) 1880 (2024) 17500 2020 3270 3400 16900 31100 32000 36400
2026-04-27 07:00 16.41 37300 36900 (2020) 1880 (2024) 17500 2020 3270 3400 16900 31100 32000 36400
2026-04-27 06:00 16.31 36900 36900 (2020) 1880 (2024) 17500 2020 3270 3400 16900 31100 32000 36400
2026-04-27 05:00 16.21 36600 36900 (2020) 1880 (2024) 17500 2020 3270 3400 16900 31100 32000 36400
2026-04-27 04:00 16.09 36200 36900 (2020) 1880 (2024) 17500 2020 3270 3400 16900 31100 32000 36400
2026-04-27 03:00 15.91 35700 36900 (2020) 1880 (2024) 17500 2020 3270 3400 16900 31100 32000 36400
2026-04-27 02:00 15.73 35100 36900 (2020) 1880 (2024) 17500 2020 3270 3400 16900 31100 32000 36400
2026-04-27 01:00 15.46 34300 36900 (2020) 1880 (2024) 17500 2020 3270 3400 16900 31100 32000 36400
2026-04-27 00:00 15.21 33500 36900 (2020) 1880 (2024) 17500 2020 3270 3400 16900 31100 32000 36400
2026-04-26 23:00 14.84 32300 36900 (2020) 1880 (2024) 17500 2020 3270 3400 16900 31100 32000 36400
2026-04-26 22:00 14.44 31100 35600 (2020) 1850 (2024) 16900 2010 3510 3730 13600 31700 33500 35500
2026-04-26 21:00 14.06 30000 35600 (2020) 1850 (2024) 16900 2010 3510 3730 13600 31700 33500 35500
2026-04-26 20:00 13.60 28600 35600 (2020) 1850 (2024) 16900 2010 3510 3730 13600 31700 33500 35500
2026-04-26 19:00 13.20 27400 35600 (2020) 1850 (2024) 16900 2010 3510 3730 13600 31700 33500 35500
2026-04-26 18:00 12.90 26500 35600 (2020) 1850 (2024) 16900 2010 3510 3730 13600 31700 33500 35500
2026-04-26 17:00 12.87 26500 35600 (2020) 1850 (2024) 16900 2010 3510 3730 13600 31700 33500 35500
2026-04-26 16:00 12.75 26100 35600 (2020) 1850 (2024) 16900 2010 3510 3730 13600 31700 33500 35500
2026-04-26 15:00 13.39 28000 35600 (2020) 1850 (2024) 16900 2010 3510 3730 13600 31700 33500 35500
2026-04-26 14:00 14.08 30000 35600 (2020) 1850 (2024) 16900 2010 3510 3730 13600 31700 33500 35500
2026-04-26 13:00 14.82 32300 35600 (2020) 1850 (2024) 16900 2010 3510 3730 13600 31700 33500 35500
2026-04-26 12:00 15.52 34400 35600 (2020) 1850 (2024) 16900 2010 3510 3730 13600 31700 33500 35500
2026-04-26 11:00 15.58 34600 35600 (2020) 1850 (2024) 16900 2010 3510 3730 13600 31700 33500 35500
2026-04-26 10:00 15.55 34500 35600 (2020) 1850 (2024) 16900 2010 3510 3730 13600 31700 33500 35500
2026-04-26 09:00 15.48 34300 35600 (2020) 1850 (2024) 16900 2010 3510 3730 13600 31700 33500 35500
2026-04-26 08:00 15.39 34000 35600 (2020) 1850 (2024) 16900 2010 3510 3730 13600 31700 33500 35500
2026-04-26 07:00 15.29 33700 35600 (2020) 1850 (2024) 16900 2010 3510 3730 13600 31700 33500 35500
2026-04-26 06:00 15.17 33400 35600 (2020) 1850 (2024) 16900 2010 3510 3730 13600 31700 33500 35500
2026-04-26 05:00 15.06 33000 35600 (2020) 1850 (2024) 16900 2010 3510 3730 13600 31700 33500 35500
2026-04-26 04:00 14.90 32500 35600 (2020) 1850 (2024) 16900 2010 3510 3730 13600 31700 33500 35500
2026-04-26 03:00 14.73 32000 35600 (2020) 1850 (2024) 16900 2010 3510 3730 13600 31700 33500 35500
2026-04-26 02:00 14.54 31400 35600 (2020) 1850 (2024) 16900 2010 3510 3730 13600 31700 33500 35500
2026-04-26 01:00 14.45 31100 35600 (2020) 1850 (2024) 16900 2010 3510 3730 13600 31700 33500 35500
2026-04-26 00:00 14.75 32100 35600 (2020) 1850 (2024) 16900 2010 3510 3730 13600 31700 33500 35500
2026-04-25 23:00 14.59 31600 35600 (2020) 1850 (2024) 16900 2010 3510 3730 13600 31700 33500 35500
2026-04-25 22:00 14.33 30800 33800 (2019) 1170 (2024) 17000 1400 4140 6130 14500 30900 31500 33600
2026-04-25 21:00 14.04 29900 33800 (2019) 1170 (2024) 17000 1400 4140 6130 14500 30900 31500 33600
2026-04-25 20:00 13.75 29000 33800 (2019) 1170 (2024) 17000 1400 4140 6130 14500 30900 31500 33600
2026-04-25 19:00 13.53 28400 33800 (2019) 1170 (2024) 17000 1400 4140 6130 14500 30900 31500 33600
2026-04-25 18:00 13.66 28800 33800 (2019) 1170 (2024) 17000 1400 4140 6130 14500 30900 31500 33600
2026-04-25 17:00 13.58 28500 33800 (2019) 1170 (2024) 17000 1400 4140 6130 14500 30900 31500 33600
2026-04-25 16:00 13.88 29400 33800 (2019) 1170 (2024) 17000 1400 4140 6130 14500 30900 31500 33600
2026-04-25 15:00 14.15 30200 33800 (2019) 1170 (2024) 17000 1400 4140 6130 14500 30900 31500 33600
2026-04-25 14:00 14.04 29900 33800 (2019) 1170 (2024) 17000 1400 4140 6130 14500 30900 31500 33600
2026-04-25 13:00 13.62 28700 33800 (2019) 1170 (2024) 17000 1400 4140 6130 14500 30900 31500 33600
2026-04-25 12:00 13.14 27200 33800 (2019) 1170 (2024) 17000 1400 4140 6130 14500 30900 31500 33600
2026-04-25 11:00 12.57 25600 33800 (2019) 1170 (2024) 17000 1400 4140 6130 14500 30900 31500 33600
2026-04-25 10:00 12.08 24200 33800 (2019) 1170 (2024) 17000 1400 4140 6130 14500 30900 31500 33600
2026-04-25 09:00 11.93 23800 33800 (2019) 1170 (2024) 17000 1400 4140 6130 14500 30900 31500 33600
2026-04-25 08:00 12.20 24500 33800 (2019) 1170 (2024) 17000 1400 4140 6130 14500 30900 31500 33600
2026-04-25 07:00 12.71 26000 33800 (2019) 1170 (2024) 17000 1400 4140 6130 14500 30900 31500 33600
2026-04-25 06:00 13.05 27000 33800 (2019) 1170 (2024) 17000 1400 4140 6130 14500 30900 31500 33600
2026-04-25 05:00 13.41 28000 33800 (2019) 1170 (2024) 17000 1400 4140 6130 14500 30900 31500 33600
2026-04-25 04:00 13.69 28900 33800 (2019) 1170 (2024) 17000 1400 4140 6130 14500 30900 31500 33600
2026-04-25 03:00 13.47 28200 33800 (2019) 1170 (2024) 17000 1400 4140 6130 14500 30900 31500 33600
2026-04-25 02:00 13.21 27400 33800 (2019) 1170 (2024) 17000 1400 4140 6130 14500 30900 31500 33600
2026-04-25 01:00 13.31 27700 33800 (2019) 1170 (2024) 17000 1400 4140 6130 14500 30900 31500 33600
2026-04-25 00:00 13.36 27900 33800 (2019) 1170 (2024) 17000 1400 4140 6130 14500 30900 31500 33600
2026-04-24 23:00 13.36 27900 33800 (2019) 1170 (2024) 17000 1400 4140 6130 14500 30900 31500 33600
2026-04-24 22:00 13.37 27900 32700 (2019) 1430 (2024) 16000 1630 3490 3670 16200 28300 30000 32500
2026-04-24 21:00 13.38 27900 32700 (2019) 1430 (2024) 16000 1630 3490 3670 16200 28300 30000 32500
2026-04-24 20:00 13.43 28100 32700 (2019) 1430 (2024) 16000 1630 3490 3670 16200 28300 30000 32500
2026-04-24 19:00 13.39 28000 32700 (2019) 1430 (2024) 16000 1630 3490 3670 16200 28300 30000 32500
2026-04-24 18:00 13.41 28000 32700 (2019) 1430 (2024) 16000 1630 3490 3670 16200 28300 30000 32500
2026-04-24 17:00 13.43 28100 32700 (2019) 1430 (2024) 16000 1630 3490 3670 16200 28300 30000 32500
2026-04-24 16:00 13.42 28100 32700 (2019) 1430 (2024) 16000 1630 3490 3670 16200 28300 30000 32500
2026-04-24 15:00 13.43 28100 32700 (2019) 1430 (2024) 16000 1630 3490 3670 16200 28300 30000 32500
2026-04-24 14:00 13.44 28100 32700 (2019) 1430 (2024) 16000 1630 3490 3670 16200 28300 30000 32500
2026-04-24 13:00 13.42 28100 32700 (2019) 1430 (2024) 16000 1630 3490 3670 16200 28300 30000 32500
2026-04-24 12:00 13.41 28000 32700 (2019) 1430 (2024) 16000 1630 3490 3670 16200 28300 30000 32500
2026-04-24 11:00 13.37 27900 32700 (2019) 1430 (2024) 16000 1630 3490 3670 16200 28300 30000 32500
2026-04-24 10:00 13.32 27800 32700 (2019) 1430 (2024) 16000 1630 3490 3670 16200 28300 30000 32500
2026-04-24 09:00 13.34 27800 32700 (2019) 1430 (2024) 16000 1630 3490 3670 16200 28300 30000 32500
2026-04-24 08:00 13.45 28200 32700 (2019) 1430 (2024) 16000 1630 3490 3670 16200 28300 30000 32500
2026-04-24 07:00 13.89 29500 32700 (2019) 1430 (2024) 16000 1630 3490 3670 16200 28300 30000 32500
2026-04-24 06:00 14.31 30700 32700 (2019) 1430 (2024) 16000 1630 3490 3670 16200 28300 30000 32500
2026-04-24 05:00 14.53 31400 32700 (2019) 1430 (2024) 16000 1630 3490 3670 16200 28300 30000 32500
2026-04-24 04:00 14.65 31800 32700 (2019) 1430 (2024) 16000 1630 3490 3670 16200 28300 30000 32500
2026-04-24 03:00 14.76 32100 32700 (2019) 1430 (2024) 16000 1630 3490 3670 16200 28300 30000 32500
2026-04-24 02:00 14.91 32500 32700 (2019) 1430 (2024) 16000 1630 3490 3670 16200 28300 30000 32500
2026-04-24 01:00 15.04 32900 32700 (2019) 1430 (2024) 16000 1630 3490 3670 16200 28300 30000 32500
2026-04-24 00:00 15.08 33100 32700 (2019) 1430 (2024) 16000 1630 3490 3670 16200 28300 30000 32500
2026-04-23 23:00 15.09 33100 32700 (2019) 1430 (2024) 16000 1630 3490 3670 16200 28300 30000 32500
2026-04-23 22:00 15.10 33100 31200 (2021) 2910 (2024) 14000 2960 3500 3680 6680 29600 30400 31100
2026-04-23 21:00 15.08 33100 31200 (2021) 2910 (2024) 14000 2960 3500 3680 6680 29600 30400 31100
2026-04-23 20:00 15.00 32800 31200 (2021) 2910 (2024) 14000 2960 3500 3680 6680 29600 30400 31100
2026-04-23 19:00 14.94 32600 31200 (2021) 2910 (2024) 14000 2960 3500 3680 6680 29600 30400 31100
2026-04-23 18:00 14.98 32800 31200 (2021) 2910 (2024) 14000 2960 3500 3680 6680 29600 30400 31100
2026-04-23 17:00 14.98 32800 31200 (2021) 2910 (2024) 14000 2960 3500 3680 6680 29600 30400 31100
2026-04-23 16:00 14.88 32500 31200 (2021) 2910 (2024) 14000 2960 3500 3680 6680 29600 30400 31100
2026-04-23 15:00 14.91 32500 31200 (2021) 2910 (2024) 14000 2960 3500 3680 6680 29600 30400 31100
2026-04-23 14:00 14.89 32500 31200 (2021) 2910 (2024) 14000 2960 3500 3680 6680 29600 30400 31100
2026-04-23 13:00 14.88 32500 31200 (2021) 2910 (2024) 14000 2960 3500 3680 6680 29600 30400 31100
2026-04-23 12:00 14.88 32500 31200 (2021) 2910 (2024) 14000 2960 3500 3680 6680 29600 30400 31100
2026-04-23 11:00 14.91 32500 31200 (2021) 2910 (2024) 14000 2960 3500 3680 6680 29600 30400 31100
2026-04-23 10:00 14.95 32700 31200 (2021) 2910 (2024) 14000 2960 3500 3680 6680 29600 30400 31100
2026-04-23 09:00 15.01 32900 31200 (2021) 2910 (2024) 14000 2960 3500 3680 6680 29600 30400 31100
2026-04-23 08:00 15.17 33400 31200 (2021) 2910 (2024) 14000 2960 3500 3680 6680 29600 30400 31100
2026-04-23 07:00 15.22 33500 31200 (2021) 2910 (2024) 14000 2960 3500 3680 6680 29600 30400 31100
2026-04-23 06:00 15.28 33700 31200 (2021) 2910 (2024) 14000 2960 3500 3680 6680 29600 30400 31100
2026-04-23 05:00 15.31 33800 31200 (2021) 2910 (2024) 14000 2960 3500 3680 6680 29600 30400 31100
2026-04-23 04:00 15.37 34000 31200 (2021) 2910 (2024) 14000 2960 3500 3680 6680 29600 30400 31100
2026-04-23 03:00 15.43 34200 31200 (2021) 2910 (2024) 14000 2960 3500 3680 6680 29600 30400 31100
2026-04-23 02:00 15.53 34500 31200 (2021) 2910 (2024) 14000 2960 3500 3680 6680 29600 30400 31100
2026-04-23 01:00 15.64 34800 31200 (2021) 2910 (2024) 14000 2960 3500 3680 6680 29600 30400 31100
2026-04-23 00:00 15.66 34900 31200 (2021) 2910 (2024) 14000 2960 3500 3680 6680 29600 30400 31100
2026-04-22 23:00 15.66 34900 31200 (2021) 2910 (2024) 14000 2960 3500 3680 6680 29600 30400 31100
2026-04-22 22:00 15.66 34900 31400 (2025) 2420 (2024) 13500 2520 3500 3660 9260 25100 25400 30800
2026-04-22 21:00 15.66 34900 31400 (2025) 2420 (2024) 13500 2520 3500 3660 9260 25100 25400 30800
2026-04-22 20:00 15.67 34900 31400 (2025) 2420 (2024) 13500 2520 3500 3660 9260 25100 25400 30800
2026-04-22 19:00 15.65 34900 31400 (2025) 2420 (2024) 13500 2520 3500 3660 9260 25100 25400 30800
2026-04-22 18:00 15.66 34900 31400 (2025) 2420 (2024) 13500 2520 3500 3660 9260 25100 25400 30800
2026-04-22 17:00 15.66 34900 31400 (2025) 2420 (2024) 13500 2520 3500 3660 9260 25100 25400 30800
2026-04-22 16:00 15.65 34900 31400 (2025) 2420 (2024) 13500 2520 3500 3660 9260 25100 25400 30800
2026-04-22 15:00 15.66 34900 31400 (2025) 2420 (2024) 13500 2520 3500 3660 9260 25100 25400 30800
2026-04-22 14:00 15.64 34800 31400 (2025) 2420 (2024) 13500 2520 3500 3660 9260 25100 25400 30800
2026-04-22 13:00 15.65 34900 31400 (2025) 2420 (2024) 13500 2520 3500 3660 9260 25100 25400 30800
2026-04-22 12:00 15.63 34800 31400 (2025) 2420 (2024) 13500 2520 3500 3660 9260 25100 25400 30800
2026-04-22 11:00 15.62 34800 31400 (2025) 2420 (2024) 13500 2520 3500 3660 9260 25100 25400 30800
2026-04-22 10:00 15.61 34700 31400 (2025) 2420 (2024) 13500 2520 3500 3660 9260 25100 25400 30800
2026-04-22 09:00 15.60 34700 31400 (2025) 2420 (2024) 13500 2520 3500 3660 9260 25100 25400 30800
2026-04-22 08:00 15.60 34700 31400 (2025) 2420 (2024) 13500 2520 3500 3660 9260 25100 25400 30800
2026-04-22 07:00 15.58 34600 31400 (2025) 2420 (2024) 13500 2520 3500 3660 9260 25100 25400 30800
2026-04-22 06:00 15.59 34700 31400 (2025) 2420 (2024) 13500 2520 3500 3660 9260 25100 25400 30800
2026-04-22 05:00 15.61 34700 31400 (2025) 2420 (2024) 13500 2520 3500 3660 9260 25100 25400 30800
2026-04-22 04:00 15.61 34700 31400 (2025) 2420 (2024) 13500 2520 3500 3660 9260 25100 25400 30800
2026-04-22 03:00 15.60 34700 31400 (2025) 2420 (2024) 13500 2520 3500 3660 9260 25100 25400 30800
2026-04-22 02:00 15.59 34700 31400 (2025) 2420 (2024) 13500 2520 3500 3660 9260 25100 25400 30800
2026-04-22 01:00 15.58 34600 31400 (2025) 2420 (2024) 13500 2520 3500 3660 9260 25100 25400 30800
2026-04-22 00:00 15.57 34600 31400 (2025) 2420 (2024) 13500 2520 3500 3660 9260 25100 25400 30800
2026-04-21 23:00 15.55 34500 31400 (2025) 2420 (2024) 13500 2520 3500 3660 9260 25100 25400 30800
2026-04-21 22:00 15.54 34500 33300 (2021) 3440 (2023) 16200 3440 3570 3830 16600 29000 31800 33300
2026-04-21 21:00 15.53 34500 33300 (2021) 3440 (2023) 16200 3440 3570 3830 16600 29000 31800 33300
2026-04-21 20:00 15.50 34400 33300 (2021) 3440 (2023) 16200 3440 3570 3830 16600 29000 31800 33300
2026-04-21 19:00 15.48 34300 33300 (2021) 3440 (2023) 16200 3440 3570 3830 16600 29000 31800 33300
2026-04-21 18:00 15.46 34300 33300 (2021) 3440 (2023) 16200 3440 3570 3830 16600 29000 31800 33300
2026-04-21 17:00 15.45 34200 33300 (2021) 3440 (2023) 16200 3440 3570 3830 16600 29000 31800 33300
2026-04-21 16:00 15.42 34100 33300 (2021) 3440 (2023) 16200 3440 3570 3830 16600 29000 31800 33300
2026-04-21 15:00 15.37 34000 33300 (2021) 3440 (2023) 16200 3440 3570 3830 16600 29000 31800 33300
2026-04-21 14:00 15.32 33800 33300 (2021) 3440 (2023) 16200 3440 3570 3830 16600 29000 31800 33300
2026-04-21 13:00 15.27 33700 33300 (2021) 3440 (2023) 16200 3440 3570 3830 16600 29000 31800 33300
2026-04-21 12:00 15.20 33400 33300 (2021) 3440 (2023) 16200 3440 3570 3830 16600 29000 31800 33300
2026-04-21 11:00 15.14 33300 33300 (2021) 3440 (2023) 16200 3440 3570 3830 16600 29000 31800 33300
2026-04-21 10:00 15.11 33200 33300 (2021) 3440 (2023) 16200 3440 3570 3830 16600 29000 31800 33300
2026-04-21 09:00 15.23 33500 33300 (2021) 3440 (2023) 16200 3440 3570 3830 16600 29000 31800 33300
2026-04-21 08:00 15.43 34200 33300 (2021) 3440 (2023) 16200 3440 3570 3830 16600 29000 31800 33300
2026-04-21 07:00 15.40 34100 33300 (2021) 3440 (2023) 16200 3440 3570 3830 16600 29000 31800 33300
2026-04-21 06:00 15.38 34000 33300 (2021) 3440 (2023) 16200 3440 3570 3830 16600 29000 31800 33300
2026-04-21 05:00 15.34 33900 33300 (2021) 3440 (2023) 16200 3440 3570 3830 16600 29000 31800 33300
2026-04-21 04:00 15.29 33700 33300 (2021) 3440 (2023) 16200 3440 3570 3830 16600 29000 31800 33300
2026-04-21 03:00 15.24 33600 33300 (2021) 3440 (2023) 16200 3440 3570 3830 16600 29000 31800 33300
2026-04-21 02:00 15.16 33300 33300 (2021) 3440 (2023) 16200 3440 3570 3830 16600 29000 31800 33300
2026-04-21 01:00 15.09 33100 33300 (2021) 3440 (2023) 16200 3440 3570 3830 16600 29000 31800 33300
2026-04-21 00:00 15.00 32800 33300 (2021) 3440 (2023) 16200 3440 3570 3830 16600 29000 31800 33300
2026-04-20 23:00 14.89 32500 33300 (2021) 3440 (2023) 16200 3440 3570 3830 16600 29000 31800 33300
2026-04-20 22:00 14.74 32000 37300 (2021) 3550 (2023) 16100 3560 3660 3780 18600 24100 27300 36400
2026-04-20 21:00 14.57 31500 37300 (2021) 3550 (2023) 16100 3560 3660 3780 18600 24100 27300 36400
2026-04-20 20:00 14.37 30900 37300 (2021) 3550 (2023) 16100 3560 3660 3780 18600 24100 27300 36400
2026-04-20 19:00 14.20 30400 37300 (2021) 3550 (2023) 16100 3560 3660 3780 18600 24100 27300 36400
2026-04-20 18:00 14.18 30300 37300 (2021) 3550 (2023) 16100 3560 3660 3780 18600 24100 27300 36400
2026-04-20 17:00 14.03 29900 37300 (2021) 3550 (2023) 16100 3560 3660 3780 18600 24100 27300 36400
2026-04-20 16:00 13.96 29700 37300 (2021) 3550 (2023) 16100 3560 3660 3780 18600 24100 27300 36400
2026-04-20 15:00 13.58 28500 37300 (2021) 3550 (2023) 16100 3560 3660 3780 18600 24100 27300 36400
2026-04-20 14:00 13.12 27200 37300 (2021) 3550 (2023) 16100 3560 3660 3780 18600 24100 27300 36400
2026-04-20 13:00 12.52 25500 37300 (2021) 3550 (2023) 16100 3560 3660 3780 18600 24100 27300 36400
2026-04-20 12:00 11.78 23400 37300 (2021) 3550 (2023) 16100 3560 3660 3780 18600 24100 27300 36400
2026-04-20 11:00 10.96 21100 37300 (2021) 3550 (2023) 16100 3560 3660 3780 18600 24100 27300 36400
2026-04-20 10:00 10.42 19700 37300 (2021) 3550 (2023) 16100 3560 3660 3780 18600 24100 27300 36400
2026-04-20 09:00 10.52 19900 37300 (2021) 3550 (2023) 16100 3560 3660 3780 18600 24100 27300 36400
2026-04-20 08:00 10.80 20700 37300 (2021) 3550 (2023) 16100 3560 3660 3780 18600 24100 27300 36400
2026-04-20 07:00 11.19 21700 37300 (2021) 3550 (2023) 16100 3560 3660 3780 18600 24100 27300 36400
2026-04-20 06:00 11.64 23000 37300 (2021) 3550 (2023) 16100 3560 3660 3780 18600 24100 27300 36400
2026-04-20 05:00 12.15 24400 37300 (2021) 3550 (2023) 16100 3560 3660 3780 18600 24100 27300 36400
2026-04-20 04:00 12.73 26100 37300 (2021) 3550 (2023) 16100 3560 3660 3780 18600 24100 27300 36400
2026-04-20 03:00 13.36 27900 37300 (2021) 3550 (2023) 16100 3560 3660 3780 18600 24100 27300 36400
2026-04-20 02:00 14.04 29900 37300 (2021) 3550 (2023) 16100 3560 3660 3780 18600 24100 27300 36400
2026-04-20 01:00 14.62 31700 37300 (2021) 3550 (2023) 16100 3560 3660 3780 18600 24100 27300 36400
2026-04-20 00:00 14.55 31400 37300 (2021) 3550 (2023) 16100 3560 3660 3780 18600 24100 27300 36400
2026-04-19 23:00 14.38 30900 37300 (2021) 3550 (2023) 16100 3560 3660 3780 18600 24100 27300 36400
2026-04-19 22:00 14.14 30200 35700 (2021) 3610 (2024) 15600 3630 3830 3930 15500 23700 27800 35100
2026-04-19 21:00 13.86 29400 35700 (2021) 3610 (2024) 15600 3630 3830 3930 15500 23700 27800 35100
2026-04-19 20:00 13.62 28700 35700 (2021) 3610 (2024) 15600 3630 3830 3930 15500 23700 27800 35100
2026-04-19 19:00 13.70 28900 35700 (2021) 3610 (2024) 15600 3630 3830 3930 15500 23700 27800 35100
2026-04-19 18:00 13.95 29600 35700 (2021) 3610 (2024) 15600 3630 3830 3930 15500 23700 27800 35100
2026-04-19 17:00 13.87 29400 35700 (2021) 3610 (2024) 15600 3630 3830 3930 15500 23700 27800 35100
2026-04-19 16:00 13.91 29500 35700 (2021) 3610 (2024) 15600 3630 3830 3930 15500 23700 27800 35100
2026-04-19 15:00 13.95 29600 35700 (2021) 3610 (2024) 15600 3630 3830 3930 15500 23700 27800 35100
2026-04-19 14:00 13.97 29700 35700 (2021) 3610 (2024) 15600 3630 3830 3930 15500 23700 27800 35100
2026-04-19 13:00 14.12 30100 35700 (2021) 3610 (2024) 15600 3630 3830 3930 15500 23700 27800 35100
2026-04-19 12:00 14.28 30600 35700 (2021) 3610 (2024) 15600 3630 3830 3930 15500 23700 27800 35100
2026-04-19 11:00 14.49 31300 35700 (2021) 3610 (2024) 15600 3630 3830 3930 15500 23700 27800 35100
2026-04-19 10:00 15.10 33100 35700 (2021) 3610 (2024) 15600 3630 3830 3930 15500 23700 27800 35100
2026-04-19 09:00 15.74 35100 35700 (2021) 3610 (2024) 15600 3630 3830 3930 15500 23700 27800 35100
2026-04-19 08:00 16.05 36100 35700 (2021) 3610 (2024) 15600 3630 3830 3930 15500 23700 27800 35100
2026-04-19 07:00 16.12 36300 35700 (2021) 3610 (2024) 15600 3630 3830 3930 15500 23700 27800 35100
2026-04-19 06:00 16.15 36400 35700 (2021) 3610 (2024) 15600 3630 3830 3930 15500 23700 27800 35100
2026-04-19 05:00 16.19 36600 35700 (2021) 3610 (2024) 15600 3630 3830 3930 15500 23700 27800 35100
2026-04-19 04:00 16.22 36700 35700 (2021) 3610 (2024) 15600 3630 3830 3930 15500 23700 27800 35100
2026-04-19 03:00 16.33 37000 35700 (2021) 3610 (2024) 15600 3630 3830 3930 15500 23700 27800 35100
2026-04-19 02:00 16.36 37100 35700 (2021) 3610 (2024) 15600 3630 3830 3930 15500 23700 27800 35100
2026-04-19 01:00 16.39 37200 35700 (2021) 3610 (2024) 15600 3630 3830 3930 15500 23700 27800 35100
2026-04-19 00:00 16.43 37300 35700 (2021) 3610 (2024) 15600 3630 3830 3930 15500 23700 27800 35100
2026-04-18 23:00 16.47 37500 35700 (2021) 3610 (2024) 15600 3630 3830 3930 15500 23700 27800 35100
2026-04-18 22:00 16.48 37500 30300 (2020) 3660 (2024) 15400 3670 4130 5100 13500 29000 29000 30200
2026-04-18 21:00 16.48 37500 30300 (2020) 3660 (2024) 15400 3670 4130 5100 13500 29000 29000 30200
2026-04-18 20:00 16.47 37500 30300 (2020) 3660 (2024) 15400 3670 4130 5100 13500 29000 29000 30200
2026-04-18 19:00 16.46 37400 30300 (2020) 3660 (2024) 15400 3670 4130 5100 13500 29000 29000 30200
2026-04-18 18:00 16.41 37300 30300 (2020) 3660 (2024) 15400 3670 4130 5100 13500 29000 29000 30200
2026-04-18 17:00 16.55 37700 30300 (2020) 3660 (2024) 15400 3670 4130 5100 13500 29000 29000 30200
2026-04-18 16:00 16.72 38300 30300 (2020) 3660 (2024) 15400 3670 4130 5100 13500 29000 29000 30200
2026-04-18 15:00 16.93 39000 30300 (2020) 3660 (2024) 15400 3670 4130 5100 13500 29000 29000 30200
2026-04-18 14:00 17.23 40000 30300 (2020) 3660 (2024) 15400 3670 4130 5100 13500 29000 29000 30200
2026-04-18 13:00 17.48 40900 30300 (2020) 3660 (2024) 15400 3670 4130 5100 13500 29000 29000 30200
2026-04-18 12:00 17.69 41600 30300 (2020) 3660 (2024) 15400 3670 4130 5100 13500 29000 29000 30200
2026-04-18 11:00 17.86 42300 30300 (2020) 3660 (2024) 15400 3670 4130 5100 13500 29000 29000 30200
2026-04-18 10:00 18.00 42800 30300 (2020) 3660 (2024) 15400 3670 4130 5100 13500 29000 29000 30200
2026-04-18 09:00 18.06 43000 30300 (2020) 3660 (2024) 15400 3670 4130 5100 13500 29000 29000 30200
2026-04-18 08:00 18.07 43000 30300 (2020) 3660 (2024) 15400 3670 4130 5100 13500 29000 29000 30200
2026-04-18 07:00 18.06 43000 30300 (2020) 3660 (2024) 15400 3670 4130 5100 13500 29000 29000 30200
2026-04-18 06:00 17.95 42600 30300 (2020) 3660 (2024) 15400 3670 4130 5100 13500 29000 29000 30200
2026-04-18 05:00 17.69 41600 30300 (2020) 3660 (2024) 15400 3670 4130 5100 13500 29000 29000 30200
2026-04-18 04:00 17.25 40100 30300 (2020) 3660 (2024) 15400 3670 4130 5100 13500 29000 29000 30200
2026-04-18 03:00 16.61 37900 30300 (2020) 3660 (2024) 15400 3670 4130 5100 13500 29000 29000 30200
2026-04-18 02:00 16.06 36100 30300 (2020) 3660 (2024) 15400 3670 4130 5100 13500 29000 29000 30200
2026-04-18 01:00 15.67 34900 30300 (2020) 3660 (2024) 15400 3670 4130 5100 13500 29000 29000 30200
2026-04-18 00:00 15.41 34100 30300 (2020) 3660 (2024) 15400 3670 4130 5100 13500 29000 29000 30200
2026-04-17 23:00 15.26 33600 30300 (2020) 3660 (2024) 15400 3670 4130 5100 13500 29000 29000 30200
2026-04-17 22:00 15.23 33500 32000 (2020) 3590 (2023) 13500 3600 3740 3820 11600 23200 26100 31500
2026-04-17 21:00 15.07 33000 32000 (2020) 3590 (2023) 13500 3600 3740 3820 11600 23200 26100 31500
2026-04-17 20:00 14.89 32500 32000 (2020) 3590 (2023) 13500 3600 3740 3820 11600 23200 26100 31500
2026-04-17 19:00 14.76 32100 32000 (2020) 3590 (2023) 13500 3600 3740 3820 11600 23200 26100 31500
2026-04-17 18:00 14.66 31800 32000 (2020) 3590 (2023) 13500 3600 3740 3820 11600 23200 26100 31500
2026-04-17 17:00 14.58 31500 32000 (2020) 3590 (2023) 13500 3600 3740 3820 11600 23200 26100 31500
2026-04-17 16:00 14.48 31200 32000 (2020) 3590 (2023) 13500 3600 3740 3820 11600 23200 26100 31500
2026-04-17 15:00 14.25 30500 32000 (2020) 3590 (2023) 13500 3600 3740 3820 11600 23200 26100 31500
2026-04-17 14:00 14.15 30200 32000 (2020) 3590 (2023) 13500 3600 3740 3820 11600 23200 26100 31500
2026-04-17 13:00 14.13 30200 32000 (2020) 3590 (2023) 13500 3600 3740 3820 11600 23200 26100 31500
2026-04-17 12:00 14.13 30200 32000 (2020) 3590 (2023) 13500 3600 3740 3820 11600 23200 26100 31500
2026-04-17 11:00 14.11 30100 32000 (2020) 3590 (2023) 13500 3600 3740 3820 11600 23200 26100 31500
2026-04-17 10:00 14.08 30000 32000 (2020) 3590 (2023) 13500 3600 3740 3820 11600 23200 26100 31500
2026-04-17 09:00 14.05 29900 32000 (2020) 3590 (2023) 13500 3600 3740 3820 11600 23200 26100 31500
2026-04-17 08:00 14.02 29800 32000 (2020) 3590 (2023) 13500 3600 3740 3820 11600 23200 26100 31500
2026-04-17 07:00 14.01 29800 32000 (2020) 3590 (2023) 13500 3600 3740 3820 11600 23200 26100 31500
2026-04-17 06:00 14.11 30100 32000 (2020) 3590 (2023) 13500 3600 3740 3820 11600 23200 26100 31500
2026-04-17 05:00 14.53 31400 32000 (2020) 3590 (2023) 13500 3600 3740 3820 11600 23200 26100 31500
2026-04-17 04:00 14.53 31400 32000 (2020) 3590 (2023) 13500 3600 3740 3820 11600 23200 26100 31500
2026-04-17 03:00 14.53 31400 32000 (2020) 3590 (2023) 13500 3600 3740 3820 11600 23200 26100 31500
2026-04-17 02:00 14.53 31400 32000 (2020) 3590 (2023) 13500 3600 3740 3820 11600 23200 26100 31500
2026-04-17 01:00 14.63 31700 32000 (2020) 3590 (2023) 13500 3600 3740 3820 11600 23200 26100 31500
2026-04-17 00:00 14.55 31400 32000 (2020) 3590 (2023) 13500 3600 3740 3820 11600 23200 26100 31500
2026-04-16 23:00 14.46 31200 32000 (2020) 3590 (2023) 13500 3600 3740 3820 11600 23200 26100 31500
2026-04-16 22:00 14.34 30800 29200 (2020) 3720 (2023) 13300 3750 4120 4490 8310 26200 28200 29200
2026-04-16 21:00 14.20 30400 29200 (2020) 3720 (2023) 13300 3750 4120 4490 8310 26200 28200 29200
2026-04-16 20:00 14.06 30000 29200 (2020) 3720 (2023) 13300 3750 4120 4490 8310 26200 28200 29200
2026-04-16 19:00 13.85 29300 29200 (2020) 3720 (2023) 13300 3750 4120 4490 8310 26200 28200 29200
2026-04-16 18:00 13.60 28600 29200 (2020) 3720 (2023) 13300 3750 4120 4490 8310 26200 28200 29200
2026-04-16 17:00 13.28 27700 29200 (2020) 3720 (2023) 13300 3750 4120 4490 8310 26200 28200 29200
2026-04-16 16:00 12.91 26600 29200 (2020) 3720 (2023) 13300 3750 4120 4490 8310 26200 28200 29200
2026-04-16 15:00 12.49 25400 29200 (2020) 3720 (2023) 13300 3750 4120 4490 8310 26200 28200 29200
2026-04-16 14:00 12.15 24400 29200 (2020) 3720 (2023) 13300 3750 4120 4490 8310 26200 28200 29200
2026-04-16 13:00 11.78 23400 29200 (2020) 3720 (2023) 13300 3750 4120 4490 8310 26200 28200 29200
2026-04-16 12:00 11.39 22300 29200 (2020) 3720 (2023) 13300 3750 4120 4490 8310 26200 28200 29200
2026-04-16 11:00 10.93 21000 29200 (2020) 3720 (2023) 13300 3750 4120 4490 8310 26200 28200 29200
2026-04-16 10:00 10.41 19600 29200 (2020) 3720 (2023) 13300 3750 4120 4490 8310 26200 28200 29200
2026-04-16 09:00 9.95 18300 29200 (2020) 3720 (2023) 13300 3750 4120 4490 8310 26200 28200 29200
2026-04-16 08:00 9.77 17800 29200 (2020) 3720 (2023) 13300 3750 4120 4490 8310 26200 28200 29200
2026-04-16 07:00 9.61 17300 29200 (2020) 3720 (2023) 13300 3750 4120 4490 8310 26200 28200 29200
2026-04-16 06:00 9.55 17100 29200 (2020) 3720 (2023) 13300 3750 4120 4490 8310 26200 28200 29200
2026-04-16 05:00 9.59 17300 29200 (2020) 3720 (2023) 13300 3750 4120 4490 8310 26200 28200 29200
2026-04-16 04:00 9.71 17600 29200 (2020) 3720 (2023) 13300 3750 4120 4490 8310 26200 28200 29200
2026-04-16 03:00 9.90 18200 29200 (2020) 3720 (2023) 13300 3750 4120 4490 8310 26200 28200 29200
2026-04-16 02:00 10.01 18500 29200 (2020) 3720 (2023) 13300 3750 4120 4490 8310 26200 28200 29200
2026-04-16 01:00 10.04 18600 29200 (2020) 3720 (2023) 13300 3750 4120 4490 8310 26200 28200 29200
2026-04-16 00:00 9.97 18400 29200 (2020) 3720 (2023) 13300 3750 4120 4490 8310 26200 28200 29200
2026-04-15 23:00 9.86 18100 29200 (2020) 3720 (2023) 13300 3750 4120 4490 8310 26200 28200 29200
2026-04-15 22:00 9.75 17700 30700 (2021) 3530 (2023) 13700 3550 3860 4170 8520 28600 29100 30600
2026-04-15 21:00 9.56 17200 30700 (2021) 3530 (2023) 13700 3550 3860 4170 8520 28600 29100 30600
2026-04-15 20:00 9.26 16300 30700 (2021) 3530 (2023) 13700 3550 3860 4170 8520 28600 29100 30600
2026-04-15 19:00 8.91 15300 30700 (2021) 3530 (2023) 13700 3550 3860 4170 8520 28600 29100 30600
2026-04-15 18:00 8.60 14400 30700 (2021) 3530 (2023) 13700 3550 3860 4170 8520 28600 29100 30600
2026-04-15 17:00 8.64 14500 30700 (2021) 3530 (2023) 13700 3550 3860 4170 8520 28600 29100 30600
2026-04-15 16:00 8.76 14900 30700 (2021) 3530 (2023) 13700 3550 3860 4170 8520 28600 29100 30600
2026-04-15 15:00 8.93 15400 30700 (2021) 3530 (2023) 13700 3550 3860 4170 8520 28600 29100 30600
2026-04-15 14:00 9.17 16000 30700 (2021) 3530 (2023) 13700 3550 3860 4170 8520 28600 29100 30600
2026-04-15 13:00 9.39 16700 30700 (2021) 3530 (2023) 13700 3550 3860 4170 8520 28600 29100 30600
2026-04-15 12:00 9.72 17600 30700 (2021) 3530 (2023) 13700 3550 3860 4170 8520 28600 29100 30600
2026-04-15 11:00 9.86 18100 30700 (2021) 3530 (2023) 13700 3550 3860 4170 8520 28600 29100 30600
2026-04-15 10:00 9.74 17700 30700 (2021) 3530 (2023) 13700 3550 3860 4170 8520 28600 29100 30600
2026-04-15 09:00 9.62 17300 30700 (2021) 3530 (2023) 13700 3550 3860 4170 8520 28600 29100 30600
2026-04-15 08:00 9.61 17300 30700 (2021) 3530 (2023) 13700 3550 3860 4170 8520 28600 29100 30600
2026-04-15 07:00 9.76 17800 30700 (2021) 3530 (2023) 13700 3550 3860 4170 8520 28600 29100 30600
2026-04-15 06:00 9.97 18400 30700 (2021) 3530 (2023) 13700 3550 3860 4170 8520 28600 29100 30600
2026-04-15 05:00 10.24 19200 30700 (2021) 3530 (2023) 13700 3550 3860 4170 8520 28600 29100 30600
2026-04-15 04:00 10.77 20600 30700 (2021) 3530 (2023) 13700 3550 3860 4170 8520 28600 29100 30600
2026-04-15 03:00 11.32 22100 30700 (2021) 3530 (2023) 13700 3550 3860 4170 8520 28600 29100 30600
2026-04-15 02:00 11.69 23100 30700 (2021) 3530 (2023) 13700 3550 3860 4170 8520 28600 29100 30600
2026-04-15 01:00 11.72 23200 30700 (2021) 3530 (2023) 13700 3550 3860 4170 8520 28600 29100 30600
2026-04-15 00:00 11.67 23100 30700 (2021) 3530 (2023) 13700 3550 3860 4170 8520 28600 29100 30600
2026-04-14 23:00 11.69 23100 30700 (2021) 3530 (2023) 13700 3550 3860 4170 8520 28600 29100 30600
2026-04-14 22:00 11.78 23400 32000 (2020) 3530 (2023) 16400 3540 3960 4850 13900 30200 31500 32000
2026-04-14 21:00 11.82 23500 32000 (2020) 3530 (2023) 16400 3540 3960 4850 13900 30200 31500 32000
2026-04-14 20:00 11.57 22800 32000 (2020) 3530 (2023) 16400 3540 3960 4850 13900 30200 31500 32000
2026-04-14 19:00 11.40 22300 32000 (2020) 3530 (2023) 16400 3540 3960 4850 13900 30200 31500 32000
2026-04-14 18:00 11.43 22400 32000 (2020) 3530 (2023) 16400 3540 3960 4850 13900 30200 31500 32000
2026-04-14 17:00 11.67 23100 32000 (2020) 3530 (2023) 16400 3540 3960 4850 13900 30200 31500 32000
2026-04-14 16:00 11.74 23300 32000 (2020) 3530 (2023) 16400 3540 3960 4850 13900 30200 31500 32000
2026-04-14 15:00 11.77 23300 32000 (2020) 3530 (2023) 16400 3540 3960 4850 13900 30200 31500 32000
2026-04-14 14:00 11.71 23200 32000 (2020) 3530 (2023) 16400 3540 3960 4850 13900 30200 31500 32000
2026-04-14 13:00 11.71 23200 32000 (2020) 3530 (2023) 16400 3540 3960 4850 13900 30200 31500 32000
2026-04-14 12:00 11.61 22900 32000 (2020) 3530 (2023) 16400 3540 3960 4850 13900 30200 31500 32000
2026-04-14 10:00 11.21 21800 32000 (2020) 3530 (2023) 16400 3540 3960 4850 13900 30200 31500 32000
2026-04-14 09:00 11.25 21900 32000 (2020) 3530 (2023) 16400 3540 3960 4850 13900 30200 31500 32000
2026-04-14 08:00 11.34 22200 32000 (2020) 3530 (2023) 16400 3540 3960 4850 13900 30200 31500 32000
2026-04-14 07:00 11.38 22300 32000 (2020) 3530 (2023) 16400 3540 3960 4850 13900 30200 31500 32000
2026-04-14 06:00 11.40 22300 32000 (2020) 3530 (2023) 16400 3540 3960 4850 13900 30200 31500 32000
2026-04-14 05:00 11.53 22700 32000 (2020) 3530 (2023) 16400 3540 3960 4850 13900 30200 31500 32000
2026-04-14 04:00 11.90 23700 32000 (2020) 3530 (2023) 16400 3540 3960 4850 13900 30200 31500 32000
2026-04-14 03:00 12.02 24000 32000 (2020) 3530 (2023) 16400 3540 3960 4850 13900 30200 31500 32000
2026-04-14 02:00 12.22 24600 32000 (2020) 3530 (2023) 16400 3540 3960 4850 13900 30200 31500 32000
2026-04-14 01:00 12.32 24900 32000 (2020) 3530 (2023) 16400 3540 3960 4850 13900 30200 31500 32000
2026-04-14 00:00 12.41 25100 32000 (2020) 3530 (2023) 16400 3540 3960 4850 13900 30200 31500 32000
2026-04-13 23:00 12.38 25100 32000 (2020) 3530 (2023) 16400 3540 3960 4850 13900 30200 31500 32000
2026-04-13 22:00 12.60 25700 37500 (2021) 3530 (2023) 17200 3590 4270 4710 17500 28700 31000 36900
2026-04-13 21:00 12.65 25800 37500 (2021) 3530 (2023) 17200 3590 4270 4710 17500 28700 31000 36900
2026-04-13 20:00 12.49 25400 37500 (2021) 3530 (2023) 17200 3590 4270 4710 17500 28700 31000 36900
2026-04-13 19:00 12.32 24900 37500 (2021) 3530 (2023) 17200 3590 4270 4710 17500 28700 31000 36900
2026-04-13 18:00 12.10 24300 37500 (2021) 3530 (2023) 17200 3590 4270 4710 17500 28700 31000 36900
2026-04-13 17:00 11.71 23200 37500 (2021) 3530 (2023) 17200 3590 4270 4710 17500 28700 31000 36900
2026-04-13 16:00 11.31 22100 37500 (2021) 3530 (2023) 17200 3590 4270 4710 17500 28700 31000 36900
2026-04-13 15:00 11.13 21600 37500 (2021) 3530 (2023) 17200 3590 4270 4710 17500 28700 31000 36900
2026-04-13 14:00 11.00 21200 37500 (2021) 3530 (2023) 17200 3590 4270 4710 17500 28700 31000 36900
2026-04-13 13:00 10.92 21000 37500 (2021) 3530 (2023) 17200 3590 4270 4710 17500 28700 31000 36900
2026-04-13 12:00 10.86 20800 37500 (2021) 3530 (2023) 17200 3590 4270 4710 17500 28700 31000 36900
2026-04-13 11:00 11.00 21200 37500 (2021) 3530 (2023) 17200 3590 4270 4710 17500 28700 31000 36900
2026-04-13 10:00 10.65 20300 37500 (2021) 3530 (2023) 17200 3590 4270 4710 17500 28700 31000 36900
2026-04-13 09:00 10.40 19600 37500 (2021) 3530 (2023) 17200 3590 4270 4710 17500 28700 31000 36900
2026-04-13 08:00 9.90 18200 37500 (2021) 3530 (2023) 17200 3590 4270 4710 17500 28700 31000 36900
2026-04-13 07:00 9.35 16600 37500 (2021) 3530 (2023) 17200 3590 4270 4710 17500 28700 31000 36900
2026-04-13 06:00 9.12 15900 37500 (2021) 3530 (2023) 17200 3590 4270 4710 17500 28700 31000 36900
2026-04-13 05:00 9.13 15900 37500 (2021) 3530 (2023) 17200 3590 4270 4710 17500 28700 31000 36900
2026-04-13 04:00 9.14 16000 37500 (2021) 3530 (2023) 17200 3590 4270 4710 17500 28700 31000 36900
2026-04-13 03:00 9.15 16000 37500 (2021) 3530 (2023) 17200 3590 4270 4710 17500 28700 31000 36900
2026-04-13 02:00 9.15 16000 37500 (2021) 3530 (2023) 17200 3590 4270 4710 17500 28700 31000 36900
2026-04-13 01:00 9.18 16100 37500 (2021) 3530 (2023) 17200 3590 4270 4710 17500 28700 31000 36900
2026-04-13 00:00 9.20 16100 37500 (2021) 3530 (2023) 17200 3590 4270 4710 17500 28700 31000 36900
2026-04-12 23:00 9.21 16200 37500 (2021) 3530 (2023) 17200 3590 4270 4710 17500 28700 31000 36900
2026-04-12 22:00 9.25 16300 37900 (2021) 5250 (2016) 17300 5290 6250 7780 12100 30100 31500 37300
2026-04-12 21:00 9.29 16400 37900 (2021) 5250 (2016) 17300 5290 6250 7780 12100 30100 31500 37300
2026-04-12 20:00 9.33 16500 37900 (2021) 5250 (2016) 17300 5290 6250 7780 12100 30100 31500 37300
2026-04-12 19:00 9.39 16700 37900 (2021) 5250 (2016) 17300 5290 6250 7780 12100 30100 31500 37300
2026-04-12 18:00 9.45 16800 37900 (2021) 5250 (2016) 17300 5290 6250 7780 12100 30100 31500 37300
2026-04-12 17:00 9.52 17100 37900 (2021) 5250 (2016) 17300 5290 6250 7780 12100 30100 31500 37300
2026-04-12 16:00 9.64 17400 37900 (2021) 5250 (2016) 17300 5290 6250 7780 12100 30100 31500 37300
2026-04-12 15:00 9.75 17700 37900 (2021) 5250 (2016) 17300 5290 6250 7780 12100 30100 31500 37300
2026-04-12 14:00 9.89 18100 37900 (2021) 5250 (2016) 17300 5290 6250 7780 12100 30100 31500 37300
2026-04-12 13:00 10.07 18700 37900 (2021) 5250 (2016) 17300 5290 6250 7780 12100 30100 31500 37300
2026-04-12 12:00 10.23 19200 37900 (2021) 5250 (2016) 17300 5290 6250 7780 12100 30100 31500 37300
2026-04-12 11:00 10.42 19700 37900 (2021) 5250 (2016) 17300 5290 6250 7780 12100 30100 31500 37300
2026-04-12 10:00 10.55 20000 37900 (2021) 5250 (2016) 17300 5290 6250 7780 12100 30100 31500 37300
2026-04-12 09:00 10.55 20000 37900 (2021) 5250 (2016) 17300 5290 6250 7780 12100 30100 31500 37300
2026-04-12 08:00 10.55 20000 37900 (2021) 5250 (2016) 17300 5290 6250 7780 12100 30100 31500 37300
2026-04-12 07:00 10.52 19900 37900 (2021) 5250 (2016) 17300 5290 6250 7780 12100 30100 31500 37300
2026-04-12 06:00 10.50 19900 37900 (2021) 5250 (2016) 17300 5290 6250 7780 12100 30100 31500 37300
2026-04-12 05:00 10.49 19900 37900 (2021) 5250 (2016) 17300 5290 6250 7780 12100 30100 31500 37300
2026-04-12 04:00 10.48 19800 37900 (2021) 5250 (2016) 17300 5290 6250 7780 12100 30100 31500 37300
2026-04-12 03:00 10.46 19800 37900 (2021) 5250 (2016) 17300 5290 6250 7780 12100 30100 31500 37300
2026-04-12 02:00 10.43 19700 37900 (2021) 5250 (2016) 17300 5290 6250 7780 12100 30100 31500 37300
2026-04-12 01:00 10.45 19800 37900 (2021) 5250 (2016) 17300 5290 6250 7780 12100 30100 31500 37300
2026-04-12 00:00 10.42 19700 37900 (2021) 5250 (2016) 17300 5290 6250 7780 12100 30100 31500 37300
2026-04-11 23:00 10.40 19600 37900 (2021) 5250 (2016) 17300 5290 6250 7780 12100 30100 31500 37300
2026-04-11 22:00 10.33 19400 39500 (2021) 4100 (2018) 16600 4180 5070 5520 10200 30500 33400 39000
2026-04-11 21:00 10.28 19300 39500 (2021) 4100 (2018) 16600 4180 5070 5520 10200 30500 33400 39000
2026-04-11 20:00 10.23 19200 39500 (2021) 4100 (2018) 16600 4180 5070 5520 10200 30500 33400 39000
2026-04-11 19:00 10.15 18900 39500 (2021) 4100 (2018) 16600 4180 5070 5520 10200 30500 33400 39000
2026-04-11 18:00 10.07 18700 39500 (2021) 4100 (2018) 16600 4180 5070 5520 10200 30500 33400 39000
2026-04-11 17:00 9.96 18400 39500 (2021) 4100 (2018) 16600 4180 5070 5520 10200 30500 33400 39000
2026-04-11 16:00 9.81 17900 39500 (2021) 4100 (2018) 16600 4180 5070 5520 10200 30500 33400 39000
2026-04-11 15:00 9.63 17400 39500 (2021) 4100 (2018) 16600 4180 5070 5520 10200 30500 33400 39000
2026-04-11 14:00 9.39 16700 39500 (2021) 4100 (2018) 16600 4180 5070 5520 10200 30500 33400 39000
2026-04-11 13:00 9.11 15900 39500 (2021) 4100 (2018) 16600 4180 5070 5520 10200 30500 33400 39000
2026-04-11 12:00 8.76 14900 39500 (2021) 4100 (2018) 16600 4180 5070 5520 10200 30500 33400 39000
2026-04-11 11:00 8.43 14000 39500 (2021) 4100 (2018) 16600 4180 5070 5520 10200 30500 33400 39000
2026-04-11 10:00 8.21 13400 39500 (2021) 4100 (2018) 16600 4180 5070 5520 10200 30500 33400 39000
2026-04-11 09:00 8.27 13500 39500 (2021) 4100 (2018) 16600 4180 5070 5520 10200 30500 33400 39000
2026-04-11 08:00 8.47 14100 39500 (2021) 4100 (2018) 16600 4180 5070 5520 10200 30500 33400 39000
2026-04-11 07:00 8.70 14700 39500 (2021) 4100 (2018) 16600 4180 5070 5520 10200 30500 33400 39000
2026-04-11 06:00 8.97 15500 39500 (2021) 4100 (2018) 16600 4180 5070 5520 10200 30500 33400 39000
2026-04-11 05:00 9.27 16300 39500 (2021) 4100 (2018) 16600 4180 5070 5520 10200 30500 33400 39000
2026-04-11 04:00 9.60 17300 39500 (2021) 4100 (2018) 16600 4180 5070 5520 10200 30500 33400 39000
2026-04-11 03:00 9.94 18300 39500 (2021) 4100 (2018) 16600 4180 5070 5520 10200 30500 33400 39000
2026-04-11 02:00 10.23 19200 39500 (2021) 4100 (2018) 16600 4180 5070 5520 10200 30500 33400 39000
2026-04-11 01:00 10.28 19300 39500 (2021) 4100 (2018) 16600 4180 5070 5520 10200 30500 33400 39000
2026-04-11 00:00 9.82 17900 39500 (2021) 4100 (2018) 16600 4180 5070 5520 10200 30500 33400 39000
2026-04-10 23:00 9.31 16400 39500 (2021) 4100 (2018) 16600 4180 5070 5520 10200 30500 33400 39000
2026-04-10 22:00 8.90 15300 39800 (2021) 3730 (2016) 16800 4170 8310 8720 10000 32300 34100 39300
2026-04-10 21:00 8.54 14300 39800 (2021) 3730 (2016) 16800 4170 8310 8720 10000 32300 34100 39300
2026-04-10 20:00 8.33 13700 39800 (2021) 3730 (2016) 16800 4170 8310 8720 10000 32300 34100 39300
2026-04-10 19:00 8.49 14100 39800 (2021) 3730 (2016) 16800 4170 8310 8720 10000 32300 34100 39300
2026-04-10 18:00 8.68 14700 39800 (2021) 3730 (2016) 16800 4170 8310 8720 10000 32300 34100 39300
2026-04-10 17:00 8.95 15400 39800 (2021) 3730 (2016) 16800 4170 8310 8720 10000 32300 34100 39300
2026-04-10 16:00 9.25 16300 39800 (2021) 3730 (2016) 16800 4170 8310 8720 10000 32300 34100 39300
2026-04-10 15:00 9.61 17300 39800 (2021) 3730 (2016) 16800 4170 8310 8720 10000 32300 34100 39300
2026-04-10 14:00 10.01 18500 39800 (2021) 3730 (2016) 16800 4170 8310 8720 10000 32300 34100 39300
2026-04-10 13:00 10.44 19700 39800 (2021) 3730 (2016) 16800 4170 8310 8720 10000 32300 34100 39300
2026-04-10 12:00 10.88 20900 39800 (2021) 3730 (2016) 16800 4170 8310 8720 10000 32300 34100 39300
2026-04-10 11:00 11.19 21700 39800 (2021) 3730 (2016) 16800 4170 8310 8720 10000 32300 34100 39300
2026-04-10 10:00 11.26 21900 39800 (2021) 3730 (2016) 16800 4170 8310 8720 10000 32300 34100 39300
2026-04-10 09:00 11.54 22700 39800 (2021) 3730 (2016) 16800 4170 8310 8720 10000 32300 34100 39300
2026-04-10 08:00 11.35 22200 39800 (2021) 3730 (2016) 16800 4170 8310 8720 10000 32300 34100 39300
2026-04-10 07:00 11.16 21700 39800 (2021) 3730 (2016) 16800 4170 8310 8720 10000 32300 34100 39300
2026-04-10 06:00 11.33 22100 39800 (2021) 3730 (2016) 16800 4170 8310 8720 10000 32300 34100 39300
2026-04-10 05:00 11.94 23800 39800 (2021) 3730 (2016) 16800 4170 8310 8720 10000 32300 34100 39300
2026-04-10 04:00 12.64 25800 39800 (2021) 3730 (2016) 16800 4170 8310 8720 10000 32300 34100 39300
2026-04-10 03:00 13.43 28100 39800 (2021) 3730 (2016) 16800 4170 8310 8720 10000 32300 34100 39300
2026-04-10 02:00 14.25 30500 39800 (2021) 3730 (2016) 16800 4170 8310 8720 10000 32300 34100 39300
2026-04-10 01:00 14.98 32800 39800 (2021) 3730 (2016) 16800 4170 8310 8720 10000 32300 34100 39300
2026-04-10 00:00 14.86 32400 39800 (2021) 3730 (2016) 16800 4170 8310 8720 10000 32300 34100 39300
2026-04-09 23:00 14.59 31600 39800 (2021) 3730 (2016) 16800 4170 8310 8720 10000 32300 34100 39300
2026-04-09 22:00 14.27 30600 37200 (2021) 3670 (2016) 15500 3800 5100 5390 9100 30600 31900 36700
2026-04-09 21:00 13.90 29500 37200 (2021) 3670 (2016) 15500 3800 5100 5390 9100 30600 31900 36700
2026-04-09 20:00 13.46 28200 37200 (2021) 3670 (2016) 15500 3800 5100 5390 9100 30600 31900 36700
2026-04-09 19:00 13.03 26900 37200 (2021) 3670 (2016) 15500 3800 5100 5390 9100 30600 31900 36700
2026-04-09 18:00 12.73 26100 37200 (2021) 3670 (2016) 15500 3800 5100 5390 9100 30600 31900 36700
2026-04-09 17:00 12.40 25100 37200 (2021) 3670 (2016) 15500 3800 5100 5390 9100 30600 31900 36700
2026-04-09 16:00 12.20 24500 37200 (2021) 3670 (2016) 15500 3800 5100 5390 9100 30600 31900 36700
2026-04-09 15:00 12.17 24500 37200 (2021) 3670 (2016) 15500 3800 5100 5390 9100 30600 31900 36700
2026-04-09 14:00 12.26 24700 37200 (2021) 3670 (2016) 15500 3800 5100 5390 9100 30600 31900 36700
2026-04-09 13:00 12.39 25100 37200 (2021) 3670 (2016) 15500 3800 5100 5390 9100 30600 31900 36700
2026-04-09 12:00 12.52 25500 37200 (2021) 3670 (2016) 15500 3800 5100 5390 9100 30600 31900 36700
2026-04-09 11:00 12.64 25800 37200 (2021) 3670 (2016) 15500 3800 5100 5390 9100 30600 31900 36700
2026-04-09 10:00 12.94 26700 37200 (2021) 3670 (2016) 15500 3800 5100 5390 9100 30600 31900 36700
2026-04-09 09:00 13.34 27800 37200 (2021) 3670 (2016) 15500 3800 5100 5390 9100 30600 31900 36700
2026-04-09 08:00 13.63 28700 37200 (2021) 3670 (2016) 15500 3800 5100 5390 9100 30600 31900 36700
2026-04-09 07:00 13.31 27700 37200 (2021) 3670 (2016) 15500 3800 5100 5390 9100 30600 31900 36700
2026-04-09 06:00 13.06 27000 37200 (2021) 3670 (2016) 15500 3800 5100 5390 9100 30600 31900 36700
2026-04-09 05:00 13.34 27800 37200 (2021) 3670 (2016) 15500 3800 5100 5390 9100 30600 31900 36700
2026-04-09 04:00 13.47 28200 37200 (2021) 3670 (2016) 15500 3800 5100 5390 9100 30600 31900 36700
2026-04-09 03:00 13.51 28300 37200 (2021) 3670 (2016) 15500 3800 5100 5390 9100 30600 31900 36700
2026-04-09 02:00 13.29 27700 37200 (2021) 3670 (2016) 15500 3800 5100 5390 9100 30600 31900 36700
2026-04-09 01:00 13.40 28000 37200 (2021) 3670 (2016) 15500 3800 5100 5390 9100 30600 31900 36700
2026-04-09 00:00 13.51 28300 37200 (2021) 3670 (2016) 15500 3800 5100 5390 9100 30600 31900 36700
2026-04-08 23:00 13.70 28900 37200 (2021) 3670 (2016) 15500 3800 5100 5390 9100 30600 31900 36700
2026-04-08 22:00 13.61 28600 37800 (2021) 2080 (2023) 16300 2240 4020 4920 10400 29700 34800 37700
2026-04-08 21:00 13.19 27400 37800 (2021) 2080 (2023) 16300 2240 4020 4920 10400 29700 34800 37700
2026-04-08 20:00 12.82 26300 37800 (2021) 2080 (2023) 16300 2240 4020 4920 10400 29700 34800 37700
2026-04-08 19:00 12.55 25500 37800 (2021) 2080 (2023) 16300 2240 4020 4920 10400 29700 34800 37700
2026-04-08 18:00 12.63 25800 37800 (2021) 2080 (2023) 16300 2240 4020 4920 10400 29700 34800 37700
2026-04-08 17:00 12.79 26200 37800 (2021) 2080 (2023) 16300 2240 4020 4920 10400 29700 34800 37700
2026-04-08 16:00 12.99 26800 37800 (2021) 2080 (2023) 16300 2240 4020 4920 10400 29700 34800 37700
2026-04-08 15:00 13.31 27700 37800 (2021) 2080 (2023) 16300 2240 4020 4920 10400 29700 34800 37700
2026-04-08 14:00 13.65 28700 37800 (2021) 2080 (2023) 16300 2240 4020 4920 10400 29700 34800 37700
2026-04-08 13:00 13.95 29600 37800 (2021) 2080 (2023) 16300 2240 4020 4920 10400 29700 34800 37700
2026-04-08 12:00 14.24 30500 37800 (2021) 2080 (2023) 16300 2240 4020 4920 10400 29700 34800 37700
2026-04-08 11:00 14.63 31700 37800 (2021) 2080 (2023) 16300 2240 4020 4920 10400 29700 34800 37700
2026-04-08 10:00 15.02 32900 37800 (2021) 2080 (2023) 16300 2240 4020 4920 10400 29700 34800 37700
2026-04-08 09:00 15.47 34300 37800 (2021) 2080 (2023) 16300 2240 4020 4920 10400 29700 34800 37700
2026-04-08 08:00 15.53 34500 37800 (2021) 2080 (2023) 16300 2240 4020 4920 10400 29700 34800 37700
2026-04-08 07:00 15.43 34200 37800 (2021) 2080 (2023) 16300 2240 4020 4920 10400 29700 34800 37700
2026-04-08 06:00 15.29 33700 37800 (2021) 2080 (2023) 16300 2240 4020 4920 10400 29700 34800 37700
2026-04-08 05:00 15.16 33300 37800 (2021) 2080 (2023) 16300 2240 4020 4920 10400 29700 34800 37700
2026-04-08 04:00 15.00 32800 37800 (2021) 2080 (2023) 16300 2240 4020 4920 10400 29700 34800 37700
2026-04-08 03:00 14.82 32300 37800 (2021) 2080 (2023) 16300 2240 4020 4920 10400 29700 34800 37700
2026-04-08 02:00 14.63 31700 37800 (2021) 2080 (2023) 16300 2240 4020 4920 10400 29700 34800 37700
2026-04-08 01:00 14.44 31100 37800 (2021) 2080 (2023) 16300 2240 4020 4920 10400 29700 34800 37700
2026-04-08 00:00 14.23 30500 37800 (2021) 2080 (2023) 16300 2240 4020 4920 10400 29700 34800 37700
2026-04-07 23:00 13.95 29600 37800 (2021) 2080 (2023) 16300 2240 4020 4920 10400 29700 34800 37700
2026-04-07 22:00 13.54 28400 37800 (2021) 2980 (2023) 17700 3050 3990 4730 16200 29500 34800 37700
2026-04-07 21:00 13.04 27000 37800 (2021) 2980 (2023) 17700 3050 3990 4730 16200 29500 34800 37700
2026-04-07 20:00 12.46 25300 37800 (2021) 2980 (2023) 17700 3050 3990 4730 16200 29500 34800 37700
2026-04-07 19:00 11.98 23900 37800 (2021) 2980 (2023) 17700 3050 3990 4730 16200 29500 34800 37700
2026-04-07 18:00 11.85 23600 37800 (2021) 2980 (2023) 17700 3050 3990 4730 16200 29500 34800 37700
2026-04-07 17:00 12.03 24100 37800 (2021) 2980 (2023) 17700 3050 3990 4730 16200 29500 34800 37700
2026-04-07 16:00 12.39 25100 37800 (2021) 2980 (2023) 17700 3050 3990 4730 16200 29500 34800 37700
2026-04-07 15:00 12.80 26300 37800 (2021) 2980 (2023) 17700 3050 3990 4730 16200 29500 34800 37700
2026-04-07 14:00 13.23 27500 37800 (2021) 2980 (2023) 17700 3050 3990 4730 16200 29500 34800 37700
2026-04-07 13:00 13.57 28500 37800 (2021) 2980 (2023) 17700 3050 3990 4730 16200 29500 34800 37700
2026-04-07 12:00 13.88 29400 37800 (2021) 2980 (2023) 17700 3050 3990 4730 16200 29500 34800 37700
2026-04-07 11:00 14.17 30300 37800 (2021) 2980 (2023) 17700 3050 3990 4730 16200 29500 34800 37700
2026-04-07 10:00 14.48 31200 37800 (2021) 2980 (2023) 17700 3050 3990 4730 16200 29500 34800 37700
2026-04-07 09:00 14.69 31900 37800 (2021) 2980 (2023) 17700 3050 3990 4730 16200 29500 34800 37700
2026-04-07 08:00 14.53 31400 37800 (2021) 2980 (2023) 17700 3050 3990 4730 16200 29500 34800 37700
2026-04-07 07:00 14.25 30500 37800 (2021) 2980 (2023) 17700 3050 3990 4730 16200 29500 34800 37700
2026-04-07 06:00 14.02 29800 37800 (2021) 2980 (2023) 17700 3050 3990 4730 16200 29500 34800 37700
2026-04-07 05:00 14.06 30000 37800 (2021) 2980 (2023) 17700 3050 3990 4730 16200 29500 34800 37700
2026-04-07 04:00 14.50 31300 37800 (2021) 2980 (2023) 17700 3050 3990 4730 16200 29500 34800 37700
2026-04-07 03:00 15.05 33000 37800 (2021) 2980 (2023) 17700 3050 3990 4730 16200 29500 34800 37700
2026-04-07 02:00 15.52 34400 37800 (2021) 2980 (2023) 17700 3050 3990 4730 16200 29500 34800 37700
2026-04-07 01:00 15.97 35900 37800 (2021) 2980 (2023) 17700 3050 3990 4730 16200 29500 34800 37700
2026-04-07 00:00 16.00 36000 37800 (2021) 2980 (2023) 17700 3050 3990 4730 16200 29500 34800 37700
2026-04-06 23:00 15.99 35900 37800 (2021) 2980 (2023) 17700 3050 3990 4730 16200 29500 34800 37700
2026-04-06 22:00 15.96 35800 40400 (2021) 3940 (2016) 19300 4120 6220 7400 17500 29900 35500 40100
2026-04-06 21:00 15.92 35700 40400 (2021) 3940 (2016) 19300 4120 6220 7400 17500 29900 35500 40100
2026-04-06 20:00 15.88 35600 40400 (2021) 3940 (2016) 19300 4120 6220 7400 17500 29900 35500 40100
2026-04-06 19:00 15.85 35500 40400 (2021) 3940 (2016) 19300 4120 6220 7400 17500 29900 35500 40100
2026-04-06 18:00 15.82 35400 40400 (2021) 3940 (2016) 19300 4120 6220 7400 17500 29900 35500 40100
2026-04-06 17:00 15.78 35300 40400 (2021) 3940 (2016) 19300 4120 6220 7400 17500 29900 35500 40100
2026-04-06 16:00 15.74 35100 40400 (2021) 3940 (2016) 19300 4120 6220 7400 17500 29900 35500 40100
2026-04-06 15:00 15.69 35000 40400 (2021) 3940 (2016) 19300 4120 6220 7400 17500 29900 35500 40100
2026-04-06 14:00 15.63 34800 40400 (2021) 3940 (2016) 19300 4120 6220 7400 17500 29900 35500 40100
2026-04-06 13:00 15.56 34600 40400 (2021) 3940 (2016) 19300 4120 6220 7400 17500 29900 35500 40100
2026-04-06 12:00 15.50 34400 40400 (2021) 3940 (2016) 19300 4120 6220 7400 17500 29900 35500 40100
2026-04-06 11:00 15.42 34100 40400 (2021) 3940 (2016) 19300 4120 6220 7400 17500 29900 35500 40100
2026-04-06 10:00 15.34 33900 40400 (2021) 3940 (2016) 19300 4120 6220 7400 17500 29900 35500 40100
2026-04-06 09:00 15.23 33500 40400 (2021) 3940 (2016) 19300 4120 6220 7400 17500 29900 35500 40100
2026-04-06 08:00 15.12 33200 40400 (2021) 3940 (2016) 19300 4120 6220 7400 17500 29900 35500 40100
2026-04-06 07:00 15.03 32900 40400 (2021) 3940 (2016) 19300 4120 6220 7400 17500 29900 35500 40100
2026-04-06 06:00 14.84 32300 40400 (2021) 3940 (2016) 19300 4120 6220 7400 17500 29900 35500 40100
2026-04-06 05:00 14.62 31700 40400 (2021) 3940 (2016) 19300 4120 6220 7400 17500 29900 35500 40100
2026-04-06 04:00 14.35 30800 40400 (2021) 3940 (2016) 19300 4120 6220 7400 17500 29900 35500 40100
2026-04-06 03:00 14.02 29800 40400 (2021) 3940 (2016) 19300 4120 6220 7400 17500 29900 35500 40100
2026-04-06 02:00 13.64 28700 40400 (2021) 3940 (2016) 19300 4120 6220 7400 17500 29900 35500 40100
2026-04-06 01:00 13.34 27800 40400 (2021) 3940 (2016) 19300 4120 6220 7400 17500 29900 35500 40100
2026-04-06 00:00 13.31 27700 40400 (2021) 3940 (2016) 19300 4120 6220 7400 17500 29900 35500 40100
2026-04-05 23:00 13.21 27400 40400 (2021) 3940 (2016) 19300 4120 6220 7400 17500 29900 35500 40100
2026-04-05 22:00 13.16 27300 44800 (2021) 3050 (2023) 17700 3270 5880 7600 12800 28900 34100 43900
2026-04-05 21:00 13.09 27100 44800 (2021) 3050 (2023) 17700 3270 5880 7600 12800 28900 34100 43900
2026-04-05 20:00 13.04 27000 44800 (2021) 3050 (2023) 17700 3270 5880 7600 12800 28900 34100 43900
2026-04-05 19:00 13.07 27000 44800 (2021) 3050 (2023) 17700 3270 5880 7600 12800 28900 34100 43900
2026-04-05 18:00 13.28 27700 44800 (2021) 3050 (2023) 17700 3270 5880 7600 12800 28900 34100 43900
2026-04-05 17:00 13.44 28100 44800 (2021) 3050 (2023) 17700 3270 5880 7600 12800 28900 34100 43900
2026-04-05 16:00 13.45 28200 44800 (2021) 3050 (2023) 17700 3270 5880 7600 12800 28900 34100 43900
2026-04-05 15:00 13.47 28200 44800 (2021) 3050 (2023) 17700 3270 5880 7600 12800 28900 34100 43900
2026-04-05 14:00 13.48 28200 44800 (2021) 3050 (2023) 17700 3270 5880 7600 12800 28900 34100 43900
2026-04-05 13:00 13.48 28200 44800 (2021) 3050 (2023) 17700 3270 5880 7600 12800 28900 34100 43900
2026-04-05 12:00 13.51 28300 44800 (2021) 3050 (2023) 17700 3270 5880 7600 12800 28900 34100 43900
2026-04-05 11:00 13.52 28400 44800 (2021) 3050 (2023) 17700 3270 5880 7600 12800 28900 34100 43900
2026-04-05 10:00 13.51 28300 44800 (2021) 3050 (2023) 17700 3270 5880 7600 12800 28900 34100 43900
2026-04-05 09:00 13.52 28400 44800 (2021) 3050 (2023) 17700 3270 5880 7600 12800 28900 34100 43900
2026-04-05 08:00 13.52 28400 44800 (2021) 3050 (2023) 17700 3270 5880 7600 12800 28900 34100 43900
2026-04-05 07:00 13.54 28400 44800 (2021) 3050 (2023) 17700 3270 5880 7600 12800 28900 34100 43900
2026-04-05 06:00 13.54 28400 44800 (2021) 3050 (2023) 17700 3270 5880 7600 12800 28900 34100 43900
2026-04-05 05:00 13.56 28500 44800 (2021) 3050 (2023) 17700 3270 5880 7600 12800 28900 34100 43900
2026-04-05 04:00 13.58 28500 44800 (2021) 3050 (2023) 17700 3270 5880 7600 12800 28900 34100 43900
2026-04-05 03:00 13.61 28600 44800 (2021) 3050 (2023) 17700 3270 5880 7600 12800 28900 34100 43900
2026-04-05 02:00 13.61 28600 44800 (2021) 3050 (2023) 17700 3270 5880 7600 12800 28900 34100 43900
2026-04-05 01:00 13.60 28600 44800 (2021) 3050 (2023) 17700 3270 5880 7600 12800 28900 34100 43900
2026-04-05 00:00 13.61 28600 44800 (2021) 3050 (2023) 17700 3270 5880 7600 12800 28900 34100 43900
2026-04-04 23:00 13.63 28700 44800 (2021) 3050 (2023) 17700 3270 5880 7600 12800 28900 34100 43900

A total of 732 rows are displayed for years 2016 through 2025.